CPA831 KJFK-VHHH

Flight info

Callsign CPA831
Flight time 17h 37m
Altitude 29000
Route GREKI DCT JUDDS DCT CAM/N0482F280 DCT YVO/N0489F300 DCT 50N080W 55N084W 59N090W 63N100W 65N110W/N0492F320 66N120W 67N130W DCT GOATS DCT BTT NCA30 OME R338 IDROD/N0484F340 R338 NATES R220 NYMPH/N0494F350 R220 NOGAL/N0491F360 R220 IXE Y88 NAKTU Y12 KOHWA Y54 TURFY/N0484F380 Y24 KOSHI Y50 IGMON A1 APU DCT MKG A1 ELATO V522 ABBEY
Aircraft B77W/H-SDE1E2E3FGHIJ2J3J4J5M1RWXY/LB1D1

Departure

Time 2026-05-08 16:32
Airport John F. Kennedy International Airport (KJFK)

Arrival

Time 2026-05-09 10:09
Airport Hong Kong International Airport (VHHH)
Time Latitude Longitude Altitude Speed Heading
2026-05-08 15:16 40.64074 -73.78102 29 ft 0 kts 239°
2026-05-08 15:40 40.64075 -73.78100 25 ft 1 kts 239°
2026-05-08 15:40 40.64084 -73.78080 31 ft 3 kts 239°
2026-05-08 15:41 40.64094 -73.78058 31 ft 2 kts 239°
2026-05-08 15:41 40.64102 -73.78041 31 ft 3 kts 223°
2026-05-08 15:41 40.64116 -73.78030 31 ft 3 kts 173°
2026-05-08 15:41 40.64134 -73.78038 31 ft 3 kts 149°
2026-05-08 15:42 40.64147 -73.78048 31 ft 1 kts 151°
2026-05-08 16:24 40.64121 -73.78029 30 ft 8 kts 151°
2026-05-08 16:25 40.64055 -73.77981 30 ft 11 kts 151°
2026-05-08 16:25 40.63981 -73.77949 27 ft 11 kts 171°
2026-05-08 16:25 40.63912 -73.77936 28 ft 7 kts 172°
2026-05-08 16:25 40.63843 -73.77925 27 ft 16 kts 173°
2026-05-08 16:26 40.63716 -73.77906 28 ft 19 kts 173°
2026-05-08 16:26 40.63592 -73.77879 30 ft 13 kts 157°
2026-05-08 16:26 40.63537 -73.77788 31 ft 9 kts 119°
2026-05-08 16:26 40.63517 -73.77711 29 ft 9 kts 71°
2026-05-08 16:27 40.63572 -73.77657 28 ft 11 kts 31°
2026-05-08 16:27 40.63660 -73.77588 29 ft 18 kts 31°
2026-05-08 16:27 40.63789 -73.77487 29 ft 24 kts 31°
2026-05-08 16:27 40.63933 -73.77375 26 ft 24 kts 31°
2026-05-08 16:28 40.64077 -73.77262 28 ft 24 kts 31°
2026-05-08 16:28 40.64221 -73.77149 31 ft 24 kts 30°
2026-05-08 16:28 40.64356 -73.77042 29 ft 20 kts 31°
2026-05-08 16:28 40.64488 -73.76989 27 ft 20 kts
2026-05-08 16:29 40.64612 -73.76908 29 ft 20 kts 28°
2026-05-08 16:29 40.64734 -73.76816 30 ft 20 kts 32°
2026-05-08 16:29 40.64852 -73.76719 29 ft 20 kts 31°
2026-05-08 16:29 40.64972 -73.76624 27 ft 20 kts 31°
2026-05-08 16:30 40.65064 -73.76553 32 ft 10 kts 30°
2026-05-08 16:30 40.65104 -73.76483 30 ft 10 kts 95°
2026-05-08 16:30 40.65068 -73.76401 27 ft 10 kts 123°
2026-05-08 16:30 40.65016 -73.76365 27 ft 9 kts 197°
2026-05-08 16:31 40.64985 -73.76384 27 ft 0 kts 211°
2026-05-08 16:31 40.64979 -73.76389 27 ft 8 kts 211°
2026-05-08 16:31 40.64719 -73.76594 29 ft 84 kts 210°
2026-05-08 16:31 40.63990 -73.77163 30 ft 159 kts 211°
2026-05-08 16:32 40.62866 -73.78072 172 ft 208 kts 213°
2026-05-08 16:32 40.61597 -73.79114 1039 ft 223 kts 215°
2026-05-08 16:32 40.60238 -73.80217 2037 ft 232 kts 215°
2026-05-08 16:32 40.58871 -73.81322 3056 ft 229 kts 216°
2026-05-08 16:33 40.57515 -73.82435 3672 ft 234 kts 216°
2026-05-08 16:33 40.55998 -73.83310 3981 ft 249 kts 190°
2026-05-08 16:33 40.54241 -73.82923 4234 ft 269 kts 153°
2026-05-08 16:33 40.52863 -73.81217 4420 ft 287 kts 117°
2026-05-08 16:34 40.52060 -73.78788 4715 ft 294 kts 119°
2026-05-08 16:34 40.50793 -73.76661 5091 ft 296 kts 138°
2026-05-08 16:34 40.49298 -73.74768 5657 ft 300 kts 138°
2026-05-08 16:34 40.47809 -73.72823 6290 ft 303 kts 137°
2026-05-08 16:35 40.46319 -73.70845 6864 ft 306 kts 137°
2026-05-08 16:35 40.44825 -73.68828 7403 ft 308 kts 134°
2026-05-08 16:35 40.43694 -73.66407 7802 ft 318 kts 108°
2026-05-08 16:35 40.43387 -73.63528 8197 ft 323 kts 82°
2026-05-08 16:36 40.43978 -73.60701 8612 ft 320 kts 56°
2026-05-08 16:36 40.45339 -73.58460 9099 ft 311 kts 34°
2026-05-08 16:36 40.47022 -73.56734 9645 ft 310 kts 29°
2026-05-08 16:36 40.48797 -73.55097 10163 ft 313 kts 27°
2026-05-08 16:37 40.50630 -73.53440 10396 ft 328 kts 27°
2026-05-08 16:37 40.52570 -73.51714 10523 ft 345 kts 27°
2026-05-08 16:37 40.54620 -73.49916 10684 ft 363 kts 27°
2026-05-08 16:37 40.56776 -73.48054 10964 ft 375 kts 27°
2026-05-08 16:38 40.58992 -73.46164 11455 ft 384 kts 27°
2026-05-08 16:38 40.61267 -73.44316 11952 ft 383 kts 20°
2026-05-08 16:38 40.63754 -73.43161 12521 ft 375 kts
2026-05-08 16:38 40.66312 -73.42900 13185 ft 366 kts 354°
2026-05-08 16:39 40.68835 -73.42690 13744 ft 375 kts
2026-05-08 16:39 40.71429 -73.42060 14301 ft 384 kts
2026-05-08 16:39 40.74032 -73.41177 14874 ft 387 kts
2026-05-08 16:39 40.76658 -73.40281 15436 ft 391 kts
2026-05-08 16:40 40.79308 -73.39378 16000 ft 395 kts
2026-05-08 16:40 40.81995 -73.38469 16516 ft 400 kts
2026-05-08 16:40 40.84701 -73.37557 17074 ft 403 kts
2026-05-08 16:40 40.87432 -73.36638 17637 ft 406 kts
2026-05-08 16:41 40.90190 -73.35712 18177 ft 410 kts
2026-05-08 16:41 40.92966 -73.34780 18641 ft 413 kts
2026-05-08 16:41 40.95763 -73.33838 19150 ft 415 kts
2026-05-08 16:42 41.01352 -73.31952 20221 ft 418 kts
2026-05-08 16:42 41.04182 -73.30998 20700 ft 420 kts
2026-05-08 16:42 41.07026 -73.30039 21165 ft 423 kts
2026-05-08 16:42 41.09887 -73.29074 21639 ft 425 kts
2026-05-08 16:43 41.12764 -73.28102 22113 ft 427 kts
2026-05-08 16:43 41.15653 -73.27126 22574 ft 430 kts
2026-05-08 16:43 41.18570 -73.26139 23090 ft 432 kts
2026-05-08 16:43 41.21488 -73.25149 23543 ft 434 kts
2026-05-08 16:44 41.24393 -73.24162 23902 ft 437 kts
2026-05-08 16:44 41.27351 -73.23158 24245 ft 440 kts
2026-05-08 16:44 41.30305 -73.22155 24593 ft 442 kts
2026-05-08 16:44 41.33290 -73.21140 24920 ft 445 kts
2026-05-08 16:45 41.36304 -73.20114 25249 ft 448 kts
2026-05-08 16:45 41.39335 -73.19079 25604 ft 451 kts
2026-05-08 16:45 41.42389 -73.18039 25888 ft 454 kts
2026-05-08 16:45 41.45459 -73.16990 26204 ft 457 kts
2026-05-08 16:46 41.48546 -73.15934 26534 ft 458 kts
2026-05-08 16:46 41.51641 -73.14877 26802 ft 462 kts
2026-05-08 16:46 41.54769 -73.13799 27101 ft 464 kts
2026-05-08 16:46 41.57903 -73.12723 27423 ft 465 kts
2026-05-08 16:47 41.61053 -73.11811 27683 ft 458 kts 356°
2026-05-08 16:47 41.64197 -73.11420 27948 ft 450 kts 350°
2026-05-08 16:47 41.67311 -73.11428 28225 ft 444 kts 345°
2026-05-08 16:47 41.70354 -73.11857 28480 ft 438 kts 341°
2026-05-08 16:48 41.73388 -73.12402 28729 ft 440 kts 341°
2026-05-08 16:48 41.76400 -73.12947 28887 ft 444 kts 341°
2026-05-08 16:48 41.79483 -73.13501 28959 ft 448 kts 341°
2026-05-08 16:49 41.85704 -73.14592 28943 ft 452 kts 342°
2026-05-08 16:49 41.91934 -73.15657 28930 ft 451 kts 342°
2026-05-08 16:50 41.98152 -73.16717 28982 ft 450 kts 342°
2026-05-08 16:50 42.04386 -73.17791 28935 ft 452 kts 342°
2026-05-08 16:51 42.10638 -73.18869 28923 ft 454 kts 342°
2026-05-08 16:51 42.16923 -73.19956 28923 ft 456 kts 342°
2026-05-08 16:52 42.23191 -73.21041 28886 ft 457 kts 342°
2026-05-08 16:52 42.29504 -73.22134 28904 ft 458 kts 343°
2026-05-08 16:53 42.39034 -73.23788 28926 ft 462 kts 343°
2026-05-08 16:53 42.45429 -73.24906 28924 ft 464 kts 344°
2026-05-08 16:54 42.51858 -73.26027 28915 ft 465 kts 344°
2026-05-08 16:54 42.58274 -73.27147 28929 ft 465 kts 344°
2026-05-08 16:55 42.64668 -73.28269 28899 ft 467 kts 345°
2026-05-08 16:55 42.71104 -73.29399 28934 ft 467 kts 345°
2026-05-08 16:56 42.77564 -73.30536 28946 ft 468 kts 345°
2026-05-08 16:56 42.84010 -73.31676 28940 ft 467 kts 345°
2026-05-08 16:57 42.90463 -73.32816 28927 ft 467 kts 345°
2026-05-08 16:57 42.96817 -73.34181 28920 ft 460 kts 338°
2026-05-08 16:58 43.02767 -73.37071 28928 ft 453 kts 330°
2026-05-08 16:58 43.08276 -73.41195 28949 ft 451 kts 325°
2026-05-08 16:59 43.13731 -73.45508 28931 ft 454 kts 325°
2026-05-08 16:59 43.19232 -73.49843 28928 ft 456 kts 325°
2026-05-08 17:00 43.24754 -73.54175 28928 ft 456 kts 326°
2026-05-08 17:00 43.30241 -73.58478 28918 ft 456 kts 326°
2026-05-08 17:01 43.35759 -73.62814 28918 ft 456 kts 326°
2026-05-08 17:01 43.41260 -73.67147 28911 ft 455 kts 326°
2026-05-08 17:02 43.46742 -73.71474 28902 ft 454 kts 326°
2026-05-08 17:02 43.52181 -73.75777 28908 ft 454 kts 326°
2026-05-08 17:03 43.57655 -73.80117 28912 ft 453 kts 326°
2026-05-08 17:03 43.63128 -73.84466 28920 ft 454 kts 326°
2026-05-08 17:04 43.68611 -73.88832 28917 ft 455 kts 326°
2026-05-08 17:04 43.74103 -73.93215 28910 ft 455 kts 326°
2026-05-08 17:05 43.79584 -73.97598 28912 ft 455 kts 326°
2026-05-08 17:05 43.85027 -74.01957 28919 ft 454 kts 326°
2026-05-08 17:06 43.90442 -74.06298 28908 ft 439 kts 325°
2026-05-08 17:06 43.95629 -74.10467 28908 ft 428 kts 325°
2026-05-08 17:07 44.00835 -74.14674 28919 ft 435 kts 325°
2026-05-08 17:07 44.06052 -74.18895 28919 ft 437 kts 325°
2026-05-08 17:08 44.11316 -74.23159 28916 ft 439 kts 326°
2026-05-08 17:08 44.16599 -74.27442 28913 ft 439 kts 326°
2026-05-08 17:09 44.21871 -74.31728 28915 ft 437 kts 326°
2026-05-08 17:09 44.27113 -74.35998 28904 ft 435 kts 326°
2026-05-08 17:10 44.32329 -74.40257 28896 ft 434 kts 326°
2026-05-08 17:10 44.37518 -74.44504 28902 ft 436 kts 326°
2026-05-08 17:11 44.42746 -74.48791 28893 ft 438 kts 326°
2026-05-08 17:11 44.48021 -74.53125 28896 ft 440 kts 326°
2026-05-08 17:12 44.53304 -74.57474 28932 ft 441 kts 326°
2026-05-08 17:12 44.58586 -74.61833 28913 ft 444 kts 326°
2026-05-08 17:13 44.63050 -74.65524 28914 ft 445 kts 326°
2026-05-08 17:13 44.69260 -74.70668 28903 ft 446 kts 326°
2026-05-08 17:14 44.73723 -74.74372 28904 ft 443 kts 326°
2026-05-08 17:14 44.78984 -74.78747 28917 ft 441 kts 326°
2026-05-08 17:15 44.84260 -74.83146 28916 ft 440 kts 326°
2026-05-08 17:15 44.89531 -74.87552 28919 ft 441 kts 326°
2026-05-08 17:16 44.94816 -74.91978 28919 ft 442 kts 326°
2026-05-08 17:16 45.00119 -74.96428 28918 ft 443 kts 326°
2026-05-08 17:17 45.05398 -75.00868 28908 ft 444 kts 326°
2026-05-08 17:17 45.10711 -75.05345 28895 ft 444 kts 326°
2026-05-08 17:18 45.16019 -75.09827 28894 ft 444 kts 326°
2026-05-08 17:18 45.21332 -75.14325 28886 ft 445 kts 326°
2026-05-08 17:19 45.26671 -75.18856 28881 ft 447 kts 325°
2026-05-08 17:19 45.32009 -75.23393 28884 ft 447 kts 325°
2026-05-08 17:20 45.37345 -75.27940 28880 ft 446 kts 325°
2026-05-08 17:20 45.42663 -75.32481 28893 ft 446 kts 325°
2026-05-08 17:21 45.47957 -75.37013 28883 ft 447 kts 325°
2026-05-08 17:21 45.53287 -75.41586 28884 ft 448 kts 325°
2026-05-08 17:22 45.58620 -75.46170 28882 ft 447 kts 325°
2026-05-08 17:22 45.63948 -75.50761 28876 ft 447 kts 325°
2026-05-08 17:23 45.69281 -75.55368 28885 ft 449 kts 325°
2026-05-08 17:23 45.74640 -75.60008 28884 ft 451 kts 325°
2026-05-08 17:24 45.80023 -75.64679 28872 ft 453 kts 325°
2026-05-08 17:24 45.85416 -75.69366 28861 ft 453 kts 325°
2026-05-08 17:25 45.90795 -75.74052 28865 ft 450 kts 325°
2026-05-08 17:25 45.96080 -75.78669 28874 ft 446 kts 325°
2026-05-08 17:26 46.01367 -75.83296 28864 ft 444 kts 325°
2026-05-08 17:26 46.06637 -75.87922 28864 ft 444 kts 324°
2026-05-08 17:27 46.11922 -75.92572 28872 ft 446 kts 325°
2026-05-08 17:27 46.17235 -75.97257 28871 ft 449 kts 324°
2026-05-08 17:28 46.22567 -76.01968 28863 ft 450 kts 324°
2026-05-08 17:28 46.27902 -76.06691 28861 ft 449 kts 324°
2026-05-08 17:29 46.33218 -76.11408 28890 ft 448 kts 324°
2026-05-08 17:29 46.38542 -76.16146 28865 ft 449 kts 324°
2026-05-08 17:30 46.43841 -76.20872 28861 ft 451 kts 324°
2026-05-08 17:30 46.49185 -76.25648 28858 ft 451 kts 324°
2026-05-08 17:31 46.54527 -76.30434 28855 ft 450 kts 324°
2026-05-08 17:31 46.59852 -76.35215 28859 ft 451 kts 324°
2026-05-08 17:32 46.65195 -76.40024 28860 ft 452 kts 324°
2026-05-08 17:32 46.70512 -76.44822 28855 ft 453 kts 324°
2026-05-08 17:33 46.75910 -76.49704 28845 ft 454 kts 324°
2026-05-08 17:33 46.81234 -76.54528 28861 ft 453 kts 324°
2026-05-08 17:34 46.86594 -76.59399 28849 ft 453 kts 324°
2026-05-08 17:34 46.91948 -76.64276 28845 ft 453 kts 324°
2026-05-08 17:35 46.97313 -76.69175 28847 ft 454 kts 324°
2026-05-08 17:35 47.02651 -76.74061 28844 ft 454 kts 324°
2026-05-08 17:36 47.08026 -76.78990 28843 ft 455 kts 324°
2026-05-08 17:36 47.13392 -76.83925 28842 ft 455 kts 324°
2026-05-08 17:37 47.18736 -76.88852 28844 ft 456 kts 324°
2026-05-08 17:37 47.24109 -76.93816 28842 ft 455 kts 324°
2026-05-08 17:38 47.29477 -76.98789 28841 ft 456 kts 324°
2026-05-08 17:38 47.34851 -77.03779 28841 ft 457 kts 324°
2026-05-08 17:39 47.40228 -77.08783 28908 ft 456 kts 324°
2026-05-08 17:39 47.42911 -77.11284 29031 ft 456 kts 324°
2026-05-08 17:39 47.45599 -77.13795 29146 ft 458 kts 324°
2026-05-08 17:40 47.48294 -77.16315 29262 ft 459 kts 324°
2026-05-08 17:40 47.50992 -77.18841 29416 ft 459 kts 324°
2026-05-08 17:40 47.56374 -77.23889 29633 ft 462 kts 324°
2026-05-08 17:41 47.59088 -77.26439 29737 ft 462 kts 324°
2026-05-08 17:41 47.61807 -77.28996 29791 ft 462 kts 324°
2026-05-08 17:41 47.67214 -77.34087 29813 ft 457 kts 324°
2026-05-08 17:42 47.72550 -77.39125 29830 ft 453 kts 323°
2026-05-08 17:42 47.77869 -77.44166 29827 ft 454 kts 323°
2026-05-08 17:43 47.83196 -77.49226 29815 ft 455 kts 323°
2026-05-08 17:43 47.88535 -77.54308 29801 ft 456 kts 323°
2026-05-08 17:44 47.93883 -77.59410 29793 ft 457 kts 323°
2026-05-08 17:44 47.99231 -77.64525 29811 ft 457 kts 323°
2026-05-08 17:45 48.04556 -77.69631 29783 ft 457 kts 323°
2026-05-08 17:45 48.09912 -77.74781 29776 ft 457 kts 323°
2026-05-08 17:46 48.15256 -77.79930 29775 ft 456 kts 323°
2026-05-08 17:46 48.20421 -77.85327 29813 ft 453 kts 319°
2026-05-08 17:47 48.25431 -77.91075 29806 ft 453 kts 319°
2026-05-08 17:47 48.29584 -77.95867 29810 ft 453 kts 319°
2026-05-08 17:48 48.35424 -78.02590 29805 ft 452 kts 319°
2026-05-08 17:48 48.40414 -78.08332 29805 ft 451 kts 319°
2026-05-08 17:49 48.45403 -78.14084 29809 ft 451 kts 319°
2026-05-08 17:49 48.50388 -78.19847 29815 ft 452 kts 319°
2026-05-08 17:50 48.55386 -78.25641 29824 ft 454 kts 319°
2026-05-08 17:50 48.60365 -78.31425 29800 ft 455 kts 319°
2026-05-08 17:51 48.65377 -78.37264 29796 ft 455 kts 319°
2026-05-08 17:51 48.70388 -78.43115 29795 ft 454 kts 319°
2026-05-08 17:52 48.75401 -78.48986 29797 ft 455 kts 319°
2026-05-08 17:53 48.82884 -78.57777 29794 ft 455 kts 319°
2026-05-08 17:53 48.87886 -78.63672 29781 ft 454 kts 319°
2026-05-08 17:54 48.92868 -78.69558 29778 ft 453 kts 319°
2026-05-08 17:54 48.97846 -78.75456 29801 ft 453 kts 319°
2026-05-08 17:55 49.02821 -78.81367 29772 ft 454 kts 319°
2026-05-08 17:55 49.07806 -78.87304 29765 ft 455 kts 319°
2026-05-08 17:56 49.12796 -78.93262 29787 ft 455 kts 319°
2026-05-08 17:56 49.17773 -78.99219 29768 ft 454 kts 319°
2026-05-08 17:57 49.22741 -79.05182 29778 ft 453 kts 319°
2026-05-08 17:57 49.27666 -79.11109 29771 ft 453 kts 319°
2026-05-08 17:58 49.32622 -79.17091 29773 ft 453 kts 319°
2026-05-08 17:58 49.37578 -79.23086 29779 ft 453 kts 318°
2026-05-08 17:59 49.42529 -79.29092 29774 ft 452 kts 319°
2026-05-08 17:59 49.47459 -79.35088 29763 ft 451 kts 319°
2026-05-08 18:00 49.51552 -79.40078 29772 ft 451 kts 319°
2026-05-08 18:00 49.59765 -79.50124 29766 ft 451 kts 318°
2026-05-08 18:01 49.64653 -79.56125 29760 ft 452 kts 318°
2026-05-08 18:01 49.69569 -79.62176 29761 ft 451 kts 319°
2026-05-08 18:02 49.73643 -79.67202 29789 ft 450 kts 318°
2026-05-08 18:02 49.79363 -79.74280 29761 ft 450 kts 318°
2026-05-08 18:03 49.84256 -79.80350 29750 ft 450 kts 318°
2026-05-08 18:03 49.89142 -79.86430 29748 ft 450 kts 318°
2026-05-08 18:04 49.93994 -79.92483 29750 ft 450 kts 318°
2026-05-08 18:04 49.98117 -79.97554 29754 ft 451 kts 321°
2026-05-08 18:05 50.03512 -80.02596 29744 ft 455 kts 331°
2026-05-08 18:05 50.09252 -80.06625 29747 ft 455 kts 332°
2026-05-08 18:06 50.15028 -80.10667 29745 ft 455 kts 332°
2026-05-08 18:06 50.20789 -80.14740 29742 ft 455 kts 332°
2026-05-08 18:07 50.26547 -80.18843 29743 ft 456 kts 332°
2026-05-08 18:07 50.32325 -80.22977 29747 ft 457 kts 332°
2026-05-08 18:08 50.38130 -80.27140 29737 ft 459 kts 332°
2026-05-08 18:08 50.43909 -80.31296 29738 ft 460 kts 332°
2026-05-08 18:09 50.49728 -80.35491 29745 ft 460 kts 332°
2026-05-08 18:09 50.55556 -80.39705 29741 ft 462 kts 332°
2026-05-08 18:10 50.61403 -80.43944 29732 ft 463 kts 332°
2026-05-08 18:10 50.67256 -80.48198 29730 ft 463 kts 332°
2026-05-08 18:11 50.73099 -80.52456 29730 ft 462 kts 332°
2026-05-08 18:11 50.78895 -80.56693 29726 ft 462 kts 332°
2026-05-08 18:12 50.84733 -80.60970 29732 ft 460 kts 332°
2026-05-08 18:12 50.90525 -80.65227 29720 ft 458 kts 332°
2026-05-08 18:13 50.96297 -80.69481 29728 ft 456 kts 332°
2026-05-08 18:13 51.02069 -80.73748 29738 ft 458 kts 332°
2026-05-08 18:14 51.07856 -80.78038 29734 ft 460 kts 332°
2026-05-08 18:14 51.13633 -80.82332 29732 ft 461 kts 332°
2026-05-08 18:15 51.19454 -80.86670 29727 ft 463 kts 332°
2026-05-08 18:15 51.25296 -80.91035 29715 ft 464 kts 332°
2026-05-08 18:16 51.31154 -80.95424 29726 ft 464 kts 332°
2026-05-08 18:16 51.37000 -80.99817 29711 ft 464 kts 332°
2026-05-08 18:17 51.42833 -81.04212 29709 ft 462 kts 331°
2026-05-08 18:17 51.48608 -81.08577 29724 ft 462 kts 332°
2026-05-08 18:18 51.54431 -81.12992 29707 ft 463 kts 332°
2026-05-08 18:18 51.60278 -81.17437 29701 ft 465 kts 332°
2026-05-08 18:19 51.66135 -81.21902 29704 ft 466 kts 332°
2026-05-08 18:19 51.72001 -81.26386 29692 ft 466 kts 331°
2026-05-08 18:20 51.77842 -81.30864 29695 ft 467 kts 332°
2026-05-08 18:20 51.83713 -81.35378 29689 ft 467 kts 332°
2026-05-08 18:21 51.89591 -81.39911 29686 ft 467 kts 332°
2026-05-08 18:21 51.95454 -81.44445 29679 ft 467 kts 332°
2026-05-08 18:22 52.01284 -81.48967 29685 ft 468 kts 332°
2026-05-08 18:22 52.07169 -81.53545 29683 ft 469 kts 332°
2026-05-08 18:23 52.13068 -81.58148 29672 ft 470 kts 332°
2026-05-08 18:23 52.18971 -81.62766 29680 ft 470 kts 332°
2026-05-08 18:24 52.24870 -81.67396 29682 ft 470 kts 332°
2026-05-08 18:24 52.30772 -81.72042 29670 ft 470 kts 332°
2026-05-08 18:25 52.36625 -81.76663 29655 ft 470 kts 332°
2026-05-08 18:25 52.42522 -81.81333 29650 ft 470 kts 332°
2026-05-08 18:26 52.48411 -81.86010 29654 ft 470 kts 332°
2026-05-08 18:26 52.54313 -81.90712 29659 ft 472 kts 332°
2026-05-08 18:27 52.59246 -81.94653 29656 ft 474 kts 332°
2026-05-08 18:27 52.66190 -82.00216 29656 ft 475 kts 332°
2026-05-08 18:28 52.72139 -82.04998 29636 ft 474 kts 332°
2026-05-08 18:28 52.78027 -82.09746 29640 ft 474 kts 332°
2026-05-08 18:29 52.83950 -82.14535 29640 ft 474 kts 332°
2026-05-08 18:29 52.89883 -82.19349 29635 ft 474 kts 332°
2026-05-08 18:30 52.95817 -82.24177 29637 ft 474 kts 332°
2026-05-08 18:30 53.01739 -82.29011 29644 ft 475 kts 332°
2026-05-08 18:31 53.07683 -82.33879 29639 ft 477 kts 332°
2026-05-08 18:31 53.13607 -82.38744 29635 ft 478 kts 332°
2026-05-08 18:32 53.19570 -82.43656 29623 ft 478 kts 332°
2026-05-08 18:32 53.25527 -82.48579 29617 ft 477 kts 332°
2026-05-08 18:33 53.31481 -82.53515 29611 ft 476 kts 332°
2026-05-08 18:33 53.37403 -82.58439 29609 ft 475 kts 332°
2026-05-08 18:34 53.43288 -82.63349 29609 ft 475 kts 332°
2026-05-08 18:34 53.49201 -82.68297 29610 ft 475 kts 331°
2026-05-08 18:35 53.55115 -82.73261 29607 ft 475 kts 332°
2026-05-08 18:35 53.61037 -82.78248 29607 ft 476 kts 332°
2026-05-08 18:36 53.66971 -82.83261 29607 ft 477 kts 332°
2026-05-08 18:36 53.72901 -82.88286 29609 ft 477 kts 332°
2026-05-08 18:37 53.78843 -82.93338 29616 ft 478 kts 332°
2026-05-08 18:37 53.84748 -82.98375 29604 ft 479 kts 332°
2026-05-08 18:38 53.90702 -83.03468 29604 ft 479 kts 332°
2026-05-08 18:38 53.96651 -83.08574 29603 ft 479 kts 332°
2026-05-08 18:39 54.02614 -83.13708 29603 ft 479 kts 332°
2026-05-08 18:39 54.08515 -83.18806 29604 ft 479 kts 332°
2026-05-08 18:40 54.14465 -83.23962 29610 ft 479 kts 332°
2026-05-08 18:40 54.20410 -83.29133 29596 ft 479 kts 332°
2026-05-08 18:41 54.26345 -83.34310 29599 ft 478 kts 332°
2026-05-08 18:41 54.32243 -83.39471 29610 ft 478 kts 332°
2026-05-08 18:42 54.38181 -83.44680 29595 ft 479 kts 332°
2026-05-08 18:42 54.44124 -83.49917 29599 ft 480 kts 332°
2026-05-08 18:43 54.50066 -83.55174 29593 ft 480 kts 332°
2026-05-08 18:43 54.55978 -83.60412 29595 ft 480 kts 332°
2026-05-08 18:44 54.61912 -83.65690 29586 ft 479 kts 332°
2026-05-08 18:44 54.67832 -83.70976 29591 ft 479 kts 332°
2026-05-08 18:45 54.73751 -83.76278 29588 ft 479 kts 332°
2026-05-08 18:45 54.79645 -83.81572 29588 ft 479 kts 332°
2026-05-08 18:46 54.85571 -83.86911 29600 ft 480 kts 332°
2026-05-08 18:46 54.91502 -83.92278 29590 ft 481 kts 332°
2026-05-08 18:47 54.97451 -83.97678 29591 ft 482 kts 332°
2026-05-08 18:47 55.03103 -84.03812 29594 ft 482 kts 322°
2026-05-08 18:48 55.08444 -84.10890 29577 ft 482 kts 322°
2026-05-08 18:48 55.13780 -84.17992 29586 ft 482 kts 322°
2026-05-08 18:49 55.19130 -84.25070 29584 ft 482 kts 322°
2026-05-08 18:49 55.24489 -84.32150 29584 ft 482 kts 322°
2026-05-08 18:50 55.29848 -84.39248 29583 ft 483 kts 322°
2026-05-08 18:50 55.35211 -84.46377 29583 ft 483 kts 322°
2026-05-08 18:51 55.40525 -84.53468 29584 ft 482 kts 322°
2026-05-08 18:51 55.45869 -84.60625 29580 ft 482 kts 322°
2026-05-08 18:52 55.51201 -84.67791 29585 ft 482 kts 322°
2026-05-08 18:52 55.56536 -84.74985 29580 ft 482 kts 322°
2026-05-08 18:53 55.61865 -84.82196 29579 ft 482 kts 322°
2026-05-08 18:53 55.67151 -84.89374 29578 ft 482 kts 322°
2026-05-08 18:54 55.72482 -84.96640 29576 ft 483 kts 322°
2026-05-08 18:54 55.77812 -85.03931 29579 ft 483 kts 322°
2026-05-08 18:55 55.84909 -85.13677 29574 ft 484 kts 322°
2026-05-08 18:56 55.90234 -85.21020 29575 ft 484 kts 322°
2026-05-08 18:56 55.95567 -85.28402 29573 ft 484 kts 322°
2026-05-08 18:57 56.01744 -85.36983 29572 ft 483 kts 322°
2026-05-08 18:57 56.06151 -85.43128 29570 ft 483 kts 321°
2026-05-08 18:58 56.11449 -85.50538 29567 ft 482 kts 321°
2026-05-08 18:58 56.16736 -85.57962 29571 ft 482 kts 321°
2026-05-08 18:59 56.22023 -85.65410 29570 ft 483 kts 321°
2026-05-08 18:59 56.27286 -85.72853 29568 ft 484 kts 321°
2026-05-08 19:00 56.32581 -85.80368 29572 ft 485 kts 321°
2026-05-08 19:00 56.37883 -85.87919 29565 ft 485 kts 321°
2026-05-08 19:01 56.43177 -85.95489 29565 ft 485 kts 321°
2026-05-08 19:01 56.48472 -86.03086 29557 ft 485 kts 321°
2026-05-08 19:02 56.53754 -86.10693 29553 ft 486 kts 321°
2026-05-08 19:02 56.59045 -86.18340 29555 ft 486 kts 321°
2026-05-08 19:03 56.64333 -86.26011 29552 ft 487 kts 321°
2026-05-08 19:03 56.69586 -86.33660 29547 ft 487 kts 321°
2026-05-08 19:04 56.74867 -86.41378 29547 ft 487 kts 321°
2026-05-08 19:04 56.80154 -86.49134 29546 ft 487 kts 321°
2026-05-08 19:05 56.85433 -86.56906 29540 ft 488 kts 321°
2026-05-08 19:05 56.90727 -86.64731 29539 ft 489 kts 321°
2026-05-08 19:06 56.96019 -86.72582 29537 ft 490 kts 321°
2026-05-08 19:06 57.01276 -86.80410 29537 ft 490 kts 321°
2026-05-08 19:07 57.06564 -86.88314 29528 ft 490 kts 321°
2026-05-08 19:07 57.11857 -86.96256 29529 ft 489 kts 321°
2026-05-08 19:08 57.17100 -87.04152 29525 ft 489 kts 321°
2026-05-08 19:08 57.22362 -87.12107 29525 ft 489 kts 321°
2026-05-08 19:09 57.27627 -87.20097 29517 ft 490 kts 321°
2026-05-08 19:09 57.32905 -87.28138 29516 ft 491 kts 321°
2026-05-08 19:10 57.38171 -87.36191 29513 ft 491 kts 321°
2026-05-08 19:10 57.43437 -87.44274 29509 ft 491 kts 321°
2026-05-08 19:11 57.48661 -87.52327 29509 ft 491 kts 320°
2026-05-08 19:11 57.53915 -87.60456 29503 ft 492 kts 320°
2026-05-08 19:12 57.59175 -87.68624 29503 ft 492 kts 320°
2026-05-08 19:12 57.64436 -87.76827 29497 ft 493 kts 321°
2026-05-08 19:13 57.69705 -87.85077 29504 ft 494 kts 320°
2026-05-08 19:13 57.74975 -87.93354 29497 ft 495 kts 320°
2026-05-08 19:14 57.80240 -88.01659 29491 ft 494 kts 320°
2026-05-08 19:14 57.85495 -88.09984 29492 ft 493 kts 320°
2026-05-08 19:15 57.90704 -88.18269 29497 ft 493 kts 320°
2026-05-08 19:15 57.95941 -88.26629 29483 ft 494 kts 320°
2026-05-08 19:16 58.01188 -88.35039 29497 ft 496 kts 320°
2026-05-08 19:16 58.06451 -88.43511 29496 ft 497 kts 320°
2026-05-08 19:17 58.11711 -88.52009 29480 ft 497 kts 320°
2026-05-08 19:17 58.16925 -88.60464 29477 ft 496 kts 320°
2026-05-08 19:18 58.22147 -88.68970 29481 ft 494 kts 320°
2026-05-08 19:18 58.27358 -88.77494 29488 ft 493 kts 320°
2026-05-08 19:19 58.32564 -88.86039 29484 ft 494 kts 320°
2026-05-08 19:19 58.37768 -88.94617 29486 ft 495 kts 320°
2026-05-08 19:20 58.42982 -89.03247 29482 ft 496 kts 320°
2026-05-08 19:20 58.48169 -89.11867 29480 ft 497 kts 320°
2026-05-08 19:21 58.53386 -89.20577 29480 ft 497 kts 319°
2026-05-08 19:21 58.58592 -89.29302 29479 ft 497 kts 319°
2026-05-08 19:22 58.63793 -89.38054 29477 ft 496 kts 319°
2026-05-08 19:22 58.68976 -89.46809 29484 ft 496 kts 319°
2026-05-08 19:23 58.74152 -89.55590 29475 ft 496 kts 319°
2026-05-08 19:23 58.79315 -89.64386 29479 ft 495 kts 319°
2026-05-08 19:24 58.84476 -89.73216 29470 ft 496 kts 319°
2026-05-08 19:24 58.89627 -89.82064 29476 ft 496 kts 319°
2026-05-08 19:25 58.94777 -89.90948 29478 ft 496 kts 319°
2026-05-08 19:25 58.99889 -89.99826 29487 ft 496 kts 318°
2026-05-08 19:26 59.04745 -90.09386 29480 ft 497 kts 314°
2026-05-08 19:26 59.09501 -90.19182 29482 ft 498 kts 314°
2026-05-08 19:27 59.14253 -90.28997 29483 ft 498 kts 314°
2026-05-08 19:27 59.19019 -90.38808 29478 ft 497 kts 314°
2026-05-08 19:28 59.23776 -90.48616 29477 ft 497 kts 314°
2026-05-08 19:28 59.28493 -90.58381 29490 ft 497 kts 314°
2026-05-08 19:29 59.33236 -90.68244 29480 ft 497 kts 314°
2026-05-08 19:29 59.37964 -90.78123 29494 ft 497 kts 314°
2026-05-08 19:30 59.42680 -90.88017 29490 ft 497 kts 314°
2026-05-08 19:30 59.47395 -90.97958 29495 ft 497 kts 314°
2026-05-08 19:31 59.52105 -91.07924 29508 ft 497 kts 314°
2026-05-08 19:31 59.56757 -91.17822 29494 ft 497 kts 314°
2026-05-08 19:32 59.61453 -91.27857 29490 ft 497 kts 314°
2026-05-08 19:32 59.63798 -91.32878 27846 ft 496 kts 313°
2026-05-08 19:32 59.66119 -91.37862 29646 ft 490 kts 314°
2026-05-08 19:32 59.68420 -91.42816 29517 ft 486 kts 314°
2026-05-08 19:33 59.70701 -91.47732 29520 ft 485 kts 314°
2026-05-08 19:33 59.75255 -91.57595 29519 ft 484 kts 314°
2026-05-08 19:34 59.79804 -91.67477 29521 ft 485 kts 314°
2026-05-08 19:34 59.84332 -91.77352 29524 ft 486 kts 314°
2026-05-08 19:35 59.88891 -91.87347 29513 ft 488 kts 314°
2026-05-08 19:35 59.93460 -91.97404 29530 ft 490 kts 314°
2026-05-08 19:36 59.98032 -92.07529 29525 ft 490 kts 314°
2026-05-08 19:36 60.02591 -92.17658 29545 ft 489 kts 314°
2026-05-08 19:37 60.07105 -92.27736 29529 ft 488 kts 314°
2026-05-08 19:37 60.11632 -92.37888 29536 ft 487 kts 314°
2026-05-08 19:38 60.16131 -92.48020 29541 ft 486 kts 313°
2026-05-08 19:38 60.20624 -92.58183 29554 ft 486 kts 314°
2026-05-08 19:39 60.25125 -92.68399 29548 ft 488 kts 314°
2026-05-08 19:39 60.29591 -92.78583 29561 ft 488 kts 314°
2026-05-08 19:40 60.34077 -92.88876 29563 ft 487 kts 314°
2026-05-08 19:40 60.38557 -92.99192 29572 ft 487 kts 313°
2026-05-08 19:41 60.43026 -93.09531 29553 ft 487 kts 314°
2026-05-08 19:41 60.47450 -93.19806 29570 ft 487 kts 313°
2026-05-08 19:42 60.51897 -93.30192 29585 ft 487 kts 314°
2026-05-08 19:42 60.56335 -93.40601 29570 ft 487 kts 313°
2026-05-08 19:43 60.60765 -93.51043 29599 ft 487 kts 313°
2026-05-08 19:43 60.65193 -93.61522 29584 ft 487 kts 313°
2026-05-08 19:44 60.69607 -93.72016 29616 ft 487 kts 313°
2026-05-08 19:44 60.73268 -93.80754 29611 ft 487 kts 313°
2026-05-08 19:45 60.77666 -93.91300 29608 ft 487 kts 313°
2026-05-08 19:45 60.82770 -94.03600 29617 ft 487 kts 313°
2026-05-08 19:46 60.86439 -94.12483 29599 ft 487 kts 313°
2026-05-08 19:46 60.92954 -94.28342 29622 ft 485 kts 313°
2026-05-08 19:47 60.97290 -94.38956 29610 ft 485 kts 313°
2026-05-08 19:47 61.01625 -94.49620 29635 ft 485 kts 313°
2026-05-08 19:48 61.05950 -94.60306 29647 ft 485 kts 313°
2026-05-08 19:48 61.10271 -94.71035 29642 ft 485 kts 313°
2026-05-08 19:49 61.14586 -94.81800 29664 ft 486 kts 313°
2026-05-08 19:49 61.18864 -94.92523 29659 ft 486 kts 313°
2026-05-08 19:50 61.23158 -95.03334 29662 ft 485 kts 313°
2026-05-08 19:50 61.27443 -95.14178 29685 ft 484 kts 313°
2026-05-08 19:51 61.31715 -95.25038 29677 ft 485 kts 313°
2026-05-08 19:51 61.35979 -95.35929 29697 ft 484 kts 313°
2026-05-08 19:52 61.40200 -95.46762 29697 ft 484 kts 313°
2026-05-08 19:52 61.44444 -95.57707 29693 ft 484 kts 313°
2026-05-08 19:53 61.48666 -95.68646 29708 ft 483 kts 313°
2026-05-08 19:53 61.52884 -95.79628 29712 ft 483 kts 313°
2026-05-08 19:54 61.57091 -95.90635 29720 ft 483 kts 313°
2026-05-08 19:54 61.61263 -96.01601 29734 ft 484 kts 313°
2026-05-08 19:55 61.65460 -96.12687 29734 ft 484 kts 313°
2026-05-08 19:55 61.69646 -96.23799 29735 ft 484 kts 312°
2026-05-08 19:56 61.73828 -96.34952 29750 ft 485 kts 312°
2026-05-08 19:56 61.77999 -96.46134 29725 ft 485 kts 312°
2026-05-08 19:57 61.82168 -96.57360 29747 ft 485 kts 312°
2026-05-08 19:57 61.86330 -96.68626 29777 ft 486 kts 312°
2026-05-08 19:58 61.90491 -96.79944 29773 ft 487 kts 312°
2026-05-08 19:58 61.94652 -96.91320 29777 ft 487 kts 312°
2026-05-08 19:59 61.98777 -97.02653 29783 ft 487 kts 312°
2026-05-08 19:59 62.02917 -97.14086 29784 ft 487 kts 312°
2026-05-08 20:00 62.07046 -97.25550 29781 ft 486 kts 313°
2026-05-08 20:00 62.11153 -97.37001 29803 ft 486 kts 312°
2026-05-08 20:01 62.15258 -97.48501 29801 ft 486 kts 312°
2026-05-08 20:01 62.19350 -97.60029 29818 ft 486 kts 312°
2026-05-08 20:02 62.23434 -97.71592 29822 ft 486 kts 312°
2026-05-08 20:02 62.27507 -97.83182 29821 ft 486 kts 312°
2026-05-08 20:03 62.31554 -97.94761 29824 ft 486 kts 312°
2026-05-08 20:03 62.35611 -98.06427 29807 ft 486 kts 313°
2026-05-08 20:04 62.39646 -98.18093 29836 ft 485 kts 314°
2026-05-08 20:04 62.43678 -98.29793 29860 ft 485 kts 313°
2026-05-08 20:05 62.47700 -98.41531 29855 ft 485 kts 313°
2026-05-08 20:05 62.51675 -98.53200 29872 ft 484 kts 313°
2026-05-08 20:06 62.55673 -98.64994 29882 ft 484 kts 313°
2026-05-08 20:06 62.59631 -98.76730 29880 ft 483 kts 315°
2026-05-08 20:07 62.63590 -98.88521 29888 ft 483 kts 314°
2026-05-08 20:07 62.67540 -99.00358 29894 ft 482 kts 314°
2026-05-08 20:08 62.71466 -99.12178 29907 ft 482 kts 314°
2026-05-08 20:08 62.75366 -99.23980 29914 ft 482 kts 314°
2026-05-08 20:09 62.79276 -99.35878 29924 ft 482 kts 314°
2026-05-08 20:09 62.83184 -99.47829 29899 ft 482 kts 314°
2026-05-08 20:10 62.87075 -99.59794 29931 ft 482 kts 313°
2026-05-08 20:10 62.90960 -99.71803 29951 ft 483 kts 313°
2026-05-08 20:11 62.94828 -99.83824 29928 ft 483 kts 313°
2026-05-08 20:11 62.98709 -99.95940 29944 ft 484 kts 312°
2026-05-08 20:12 63.02266 -100.08628 29964 ft 490 kts 306°
2026-05-08 20:12 63.05520 -100.21837 29960 ft 490 kts 306°
2026-05-08 20:13 63.08756 -100.35070 29965 ft 490 kts 305°
2026-05-08 20:13 63.12004 -100.48314 29979 ft 489 kts 305°
2026-05-08 20:14 63.15226 -100.61460 29978 ft 489 kts 305°
2026-05-08 20:14 63.18460 -100.74719 29988 ft 488 kts 304°
2026-05-08 20:15 63.21674 -100.87993 29997 ft 488 kts 304°
2026-05-08 20:15 63.24873 -101.01284 29989 ft 488 kts 304°
2026-05-08 20:16 63.28062 -101.14615 29995 ft 488 kts 304°
2026-05-08 20:16 63.31215 -101.27874 29996 ft 488 kts 303°
2026-05-08 20:17 63.34375 -101.41246 30013 ft 488 kts 303°
2026-05-08 20:17 63.37531 -101.54682 29983 ft 488 kts 303°
2026-05-08 20:18 63.40668 -101.68123 30028 ft 489 kts 303°
2026-05-08 20:18 63.43780 -101.81538 30032 ft 489 kts 303°
2026-05-08 20:19 63.46900 -101.95070 30032 ft 490 kts 303°
2026-05-08 20:19 63.50009 -102.08646 30047 ft 490 kts 303°
2026-05-08 20:20 63.53111 -102.22277 30007 ft 490 kts 302°
2026-05-08 20:20 63.56194 -102.35906 30043 ft 490 kts 302°
2026-05-08 20:21 63.59262 -102.49557 30062 ft 490 kts 302°
2026-05-08 20:21 63.62304 -102.63177 30063 ft 491 kts 302°
2026-05-08 20:22 63.65353 -102.76918 30074 ft 491 kts 302°
2026-05-08 20:22 63.67902 -102.88471 30079 ft 492 kts 302°
2026-05-08 20:23 63.71431 -103.04578 30082 ft 492 kts 301°
2026-05-08 20:23 63.74448 -103.18443 30090 ft 492 kts 301°
2026-05-08 20:24 63.77455 -103.32346 30068 ft 491 kts 301°
2026-05-08 20:24 63.80427 -103.46183 30088 ft 492 kts 300°
2026-05-08 20:25 63.83409 -103.60166 30106 ft 493 kts 300°
2026-05-08 20:25 63.86387 -103.74216 30107 ft 494 kts 300°
2026-05-08 20:26 63.89352 -103.88302 30115 ft 495 kts 300°
2026-05-08 20:26 63.92311 -104.02457 30114 ft 495 kts 300°
2026-05-08 20:27 63.95250 -104.16608 30113 ft 495 kts 300°
2026-05-08 20:27 63.98157 -104.30687 30118 ft 494 kts 299°
2026-05-08 20:28 64.01065 -104.44886 30120 ft 494 kts 299°
2026-05-08 20:28 64.03962 -104.59132 30126 ft 495 kts 299°
2026-05-08 20:29 64.06848 -104.73414 30127 ft 495 kts 298°
2026-05-08 20:29 64.09722 -104.87732 30135 ft 495 kts 298°
2026-05-08 20:30 64.12566 -105.02003 30136 ft 496 kts 298°
2026-05-08 20:30 64.15415 -105.16403 30137 ft 496 kts 298°
2026-05-08 20:31 64.18250 -105.30827 30106 ft 496 kts 297°
2026-05-08 20:31 64.21067 -105.45266 30134 ft 496 kts 297°
2026-05-08 20:32 64.23875 -105.59759 30143 ft 497 kts 297°
2026-05-08 20:32 64.26675 -105.74313 30150 ft 498 kts 297°
2026-05-08 20:33 64.29462 -105.88907 30141 ft 498 kts 297°
2026-05-08 20:33 64.32220 -106.03456 30147 ft 498 kts 297°
2026-05-08 20:34 64.34982 -106.18129 30152 ft 498 kts 296°
2026-05-08 20:35 64.39095 -106.40177 30129 ft 498 kts 295°
2026-05-08 20:35 64.41818 -106.54909 30146 ft 498 kts 295°
2026-05-08 20:36 64.44526 -106.69687 30151 ft 499 kts 295°
2026-05-08 20:36 64.47224 -106.84508 30150 ft 499 kts 295°
2026-05-08 20:37 64.49912 -106.99381 30156 ft 500 kts 295°
2026-05-08 20:37 64.52139 -107.11786 30137 ft 500 kts 294°
2026-05-08 20:38 64.55229 -107.29130 30160 ft 500 kts 294°
2026-05-08 20:38 64.57437 -107.41637 30408 ft 499 kts 294°
2026-05-08 20:38 64.58753 -107.49120 30545 ft 500 kts 293°
2026-05-08 20:39 64.60074 -107.56651 30687 ft 501 kts 293°
2026-05-08 20:39 64.61369 -107.64076 30832 ft 502 kts 292°
2026-05-08 20:39 64.62678 -107.71618 30979 ft 502 kts 293°
2026-05-08 20:39 64.63989 -107.79190 31097 ft 504 kts 292°
2026-05-08 20:40 64.65297 -107.86772 31224 ft 504 kts 292°
2026-05-08 20:40 64.66607 -107.94402 31353 ft 505 kts 292°
2026-05-08 20:40 64.67913 -108.02042 31465 ft 506 kts 292°
2026-05-08 20:40 64.69199 -108.09585 31594 ft 506 kts 291°
2026-05-08 20:41 64.70515 -108.17332 31624 ft 505 kts 291°
2026-05-08 20:41 64.71803 -108.24951 31734 ft 502 kts 291°
2026-05-08 20:41 64.73082 -108.32550 31895 ft 502 kts 291°
2026-05-08 20:41 64.74358 -108.40161 32046 ft 502 kts 291°
2026-05-08 20:42 64.75616 -108.47697 32189 ft 502 kts 291°
2026-05-08 20:42 64.76889 -108.55346 32346 ft 502 kts 291°
2026-05-08 20:42 64.78155 -108.62968 32501 ft 502 kts 290°
2026-05-08 20:42 64.79414 -108.70593 32643 ft 501 kts 290°
2026-05-08 20:43 64.80669 -108.78242 32804 ft 501 kts 290°
2026-05-08 20:43 64.81917 -108.85874 32965 ft 500 kts 290°
2026-05-08 20:43 64.83159 -108.93498 33085 ft 500 kts 290°
2026-05-08 20:44 64.85636 -109.08775 33180 ft 496 kts 289°
2026-05-08 20:44 64.88042 -109.23738 33175 ft 490 kts 289°
2026-05-08 20:45 64.90451 -109.38858 33194 ft 490 kts 289°
2026-05-08 20:45 64.92817 -109.53821 33188 ft 490 kts 288°
2026-05-08 20:46 64.95187 -109.68929 33195 ft 491 kts 288°
2026-05-08 20:46 64.97546 -109.84094 33204 ft 492 kts 288°
2026-05-08 20:47 64.99894 -109.99290 33197 ft 492 kts 288°
2026-05-08 20:47 65.02080 -110.14504 33222 ft 491 kts 284°
2026-05-08 20:48 65.04140 -110.29945 33208 ft 491 kts 284°
2026-05-08 20:48 65.06180 -110.45352 33208 ft 490 kts 284°
2026-05-08 20:49 65.08228 -110.60762 33218 ft 489 kts 284°
2026-05-08 20:49 65.10266 -110.76141 33228 ft 488 kts 284°
2026-05-08 20:50 65.12288 -110.91537 33243 ft 488 kts 283°
2026-05-08 20:50 65.14281 -111.06858 33228 ft 488 kts 283°
2026-05-08 20:51 65.16270 -111.22301 33241 ft 487 kts 283°
2026-05-08 20:51 65.18234 -111.37706 33234 ft 487 kts 283°
2026-05-08 20:52 65.20183 -111.53133 33237 ft 486 kts 282°
2026-05-08 20:52 65.22115 -111.68581 33240 ft 486 kts 282°
2026-05-08 20:53 65.24018 -111.83937 33244 ft 486 kts 282°
2026-05-08 20:53 65.25920 -111.99432 33241 ft 486 kts 282°
2026-05-08 20:54 65.27803 -112.14934 33284 ft 486 kts 283°
2026-05-08 20:54 65.29670 -112.30439 33258 ft 485 kts 282°
2026-05-08 20:55 65.31508 -112.45870 33242 ft 484 kts 282°
2026-05-08 20:55 65.33334 -112.61359 33247 ft 483 kts 282°
2026-05-08 20:56 65.35142 -112.76841 33248 ft 482 kts 282°
2026-05-08 20:56 65.36932 -112.92338 33246 ft 481 kts 282°
2026-05-08 20:57 65.38705 -113.07833 33245 ft 481 kts 282°
2026-05-08 20:57 65.40449 -113.23253 33256 ft 482 kts 282°
2026-05-08 20:58 65.42194 -113.38827 33259 ft 482 kts 282°
2026-05-08 20:58 65.43919 -113.54378 33236 ft 481 kts 282°
2026-05-08 20:59 65.45626 -113.69933 33248 ft 480 kts 282°
2026-05-08 20:59 65.47304 -113.85397 33258 ft 480 kts 282°
2026-05-08 21:00 65.48972 -114.00936 33258 ft 479 kts 282°
2026-05-08 21:00 65.50625 -114.16494 33253 ft 479 kts 282°
2026-05-08 21:01 65.52255 -114.32051 33266 ft 478 kts 282°
2026-05-08 21:01 65.53874 -114.47617 33266 ft 477 kts 282°
2026-05-08 21:02 65.55472 -114.63149 33263 ft 476 kts 282°
2026-05-08 21:02 65.57049 -114.78668 33263 ft 475 kts 282°
2026-05-08 21:03 65.58597 -114.94085 33256 ft 475 kts 282°
2026-05-08 21:03 65.60139 -115.09603 33259 ft 474 kts 282°
2026-05-08 21:04 65.61665 -115.25152 33262 ft 474 kts 282°
2026-05-08 21:04 65.63174 -115.40696 33266 ft 474 kts 282°
2026-05-08 21:05 65.64668 -115.56279 33259 ft 475 kts 281°
2026-05-08 21:05 65.66148 -115.71889 33271 ft 475 kts 281°
2026-05-08 21:06 65.67603 -115.87417 33266 ft 475 kts 281°
2026-05-08 21:06 65.69052 -116.03083 33263 ft 476 kts 281°
2026-05-08 21:07 65.70486 -116.18765 33260 ft 476 kts 281°
2026-05-08 21:07 65.71905 -116.34490 33283 ft 475 kts 282°
2026-05-08 21:08 65.73293 -116.50061 33253 ft 474 kts 282°
2026-05-08 21:08 65.74671 -116.65704 33263 ft 472 kts 281°
2026-05-08 21:09 65.76026 -116.81288 33250 ft 470 kts 281°
2026-05-08 21:09 65.77360 -116.96837 33261 ft 469 kts 281°
2026-05-08 21:10 65.78679 -117.12412 33263 ft 469 kts 281°
2026-05-08 21:10 65.79973 -117.27897 33266 ft 469 kts 281°
2026-05-08 21:11 65.81261 -117.43501 33260 ft 468 kts 281°
2026-05-08 21:11 65.82529 -117.59076 33262 ft 467 kts 281°
2026-05-08 21:12 65.83777 -117.74606 33246 ft 466 kts 281°
2026-05-08 21:12 65.85001 -117.90044 33244 ft 465 kts 281°
2026-05-08 21:13 65.86212 -118.05538 33254 ft 464 kts 281°
2026-05-08 21:13 65.87406 -118.21037 33247 ft 464 kts 281°
2026-05-08 21:14 65.88586 -118.36554 33240 ft 464 kts 281°
2026-05-08 21:14 65.89749 -118.52094 33257 ft 463 kts 281°
2026-05-08 21:15 65.90893 -118.67587 33235 ft 461 kts 281°
2026-05-08 21:15 65.92010 -118.82915 33231 ft 459 kts 281°
2026-05-08 21:16 65.93113 -118.98306 33237 ft 457 kts 281°
2026-05-08 21:16 65.94199 -119.13673 33227 ft 457 kts 281°
2026-05-08 21:17 65.95267 -119.29006 33232 ft 457 kts 280°
2026-05-08 21:17 65.96321 -119.44380 33239 ft 457 kts 280°
2026-05-08 21:18 65.97360 -119.59781 33218 ft 457 kts 280°
2026-05-08 21:18 65.98379 -119.75097 33221 ft 456 kts 280°
2026-05-08 21:19 65.99386 -119.90462 33206 ft 454 kts 280°
2026-05-08 21:19 66.00693 -120.05601 33201 ft 451 kts 288°
2026-05-08 21:20 66.02694 -120.20091 33209 ft 450 kts 289°
2026-05-08 21:20 66.04692 -120.34687 33225 ft 450 kts 289°
2026-05-08 21:21 66.06661 -120.49325 33219 ft 450 kts 288°
2026-05-08 21:21 66.08607 -120.63986 33220 ft 450 kts 288°
2026-05-08 21:22 66.10543 -120.78710 33197 ft 451 kts 288°
2026-05-08 21:22 66.12447 -120.93317 33225 ft 449 kts 288°
2026-05-08 21:23 66.14341 -121.07984 33203 ft 447 kts 288°
2026-05-08 21:23 66.16215 -121.22615 33198 ft 446 kts 288°
2026-05-08 21:24 66.18070 -121.37232 33207 ft 445 kts 287°
2026-05-08 21:24 66.19910 -121.51850 33206 ft 444 kts 287°
2026-05-08 21:25 66.21733 -121.66471 33209 ft 444 kts 287°
2026-05-08 21:25 66.23532 -121.81032 33205 ft 445 kts 287°
2026-05-08 21:26 66.25333 -121.95735 33221 ft 445 kts 287°
2026-05-08 21:26 66.27121 -122.10468 33206 ft 445 kts 287°
2026-05-08 21:27 66.28890 -122.25181 33196 ft 444 kts 287°
2026-05-08 21:27 66.30641 -122.39883 33198 ft 443 kts 286°
2026-05-08 21:28 66.32367 -122.54514 33198 ft 442 kts 286°
2026-05-08 21:28 66.34090 -122.69248 33197 ft 442 kts 286°
2026-05-08 21:29 66.35507 -122.81481 33199 ft 442 kts 286°
2026-05-08 21:29 66.37198 -122.96198 33195 ft 441 kts 286°
2026-05-08 21:30 66.38868 -123.10874 33195 ft 442 kts 285°
2026-05-08 21:30 66.40812 -123.28138 33199 ft 442 kts 285°
2026-05-08 21:31 66.42184 -123.40438 33179 ft 442 kts 285°
2026-05-08 21:31 66.43823 -123.55269 33186 ft 442 kts 285°
2026-05-08 21:32 66.45443 -123.70072 33182 ft 442 kts 285°
2026-05-08 21:32 66.47051 -123.84916 33184 ft 442 kts 285°
2026-05-08 21:33 66.48643 -123.99764 33172 ft 442 kts 284°
2026-05-08 21:33 66.50213 -124.14556 33198 ft 442 kts 284°
2026-05-08 21:34 66.51780 -124.29469 33186 ft 442 kts 284°
2026-05-08 21:34 66.53333 -124.44399 33154 ft 442 kts 284°
2026-05-08 21:35 66.54867 -124.59306 33160 ft 441 kts 284°
2026-05-08 21:35 66.56387 -124.74231 33160 ft 441 kts 283°
2026-05-08 21:36 66.57893 -124.89179 33156 ft 441 kts 283°
2026-05-08 21:36 66.59384 -125.04131 33149 ft 440 kts 283°
2026-05-08 21:37 66.60851 -125.19010 33147 ft 440 kts 283°
2026-05-08 21:37 66.62314 -125.33995 33142 ft 441 kts 283°
2026-05-08 21:38 66.63762 -125.49010 33128 ft 440 kts 282°
2026-05-08 21:38 66.65193 -125.64004 33129 ft 440 kts 282°
2026-05-08 21:39 66.66611 -125.79030 33129 ft 440 kts 282°
2026-05-08 21:39 66.68005 -125.93968 33142 ft 440 kts 282°
2026-05-08 21:40 66.69393 -126.09011 33123 ft 440 kts 282°
2026-05-08 21:40 66.70767 -126.24076 33121 ft 440 kts 282°
2026-05-08 21:41 66.72803 -126.46737 33124 ft 440 kts 281°
2026-05-08 21:41 66.74134 -126.61773 33103 ft 440 kts 281°
2026-05-08 21:42 66.75456 -126.76873 33106 ft 439 kts 281°
2026-05-08 21:42 66.76764 -126.91996 33102 ft 439 kts 281°
2026-05-08 21:43 66.78054 -127.07102 33103 ft 439 kts 281°
2026-05-08 21:43 66.79330 -127.22224 33078 ft 439 kts 281°
2026-05-08 21:44 66.80594 -127.37393 33082 ft 438 kts 281°
2026-05-08 21:44 66.81832 -127.52446 33079 ft 439 kts 280°
2026-05-08 21:45 66.83066 -127.67641 33056 ft 439 kts 280°
2026-05-08 21:45 66.84285 -127.82833 33055 ft 439 kts 280°
2026-05-08 21:46 66.85491 -127.98062 33057 ft 439 kts 280°
2026-05-08 21:46 66.86675 -128.13216 33052 ft 439 kts 280°
2026-05-08 21:47 66.87851 -128.28467 33061 ft 439 kts 280°
2026-05-08 21:47 66.89012 -128.43737 33052 ft 439 kts 279°
2026-05-08 21:48 66.90160 -128.59028 33088 ft 439 kts 279°
2026-05-08 21:48 66.91292 -128.74329 33039 ft 439 kts 279°
2026-05-08 21:49 66.92408 -128.89620 33036 ft 438 kts 279°
2026-05-08 21:49 66.93500 -129.04806 33044 ft 437 kts 278°
2026-05-08 21:50 66.94582 -129.20052 33039 ft 437 kts 278°
2026-05-08 21:50 66.95649 -129.35322 33028 ft 436 kts 278°
2026-05-08 21:51 66.96700 -129.50577 33024 ft 436 kts 278°
2026-05-08 21:51 66.97737 -129.65845 33027 ft 436 kts 278°
2026-05-08 21:52 66.98762 -129.81148 33043 ft 437 kts 278°
2026-05-08 21:52 66.99770 -129.96471 33009 ft 437 kts 277°
2026-05-08 21:53 67.00271 -130.11936 32991 ft 435 kts 271°
2026-05-08 21:53 67.00526 -130.27299 33001 ft 435 kts 271°
2026-05-08 21:54 67.00784 -130.42741 32993 ft 434 kts 271°
2026-05-08 21:54 67.01038 -130.58176 32994 ft 434 kts 271°
2026-05-08 21:55 67.01280 -130.73601 32987 ft 434 kts 271°
2026-05-08 21:56 67.01615 -130.96736 32978 ft 434 kts 271°
2026-05-08 21:56 67.01820 -131.12175 32989 ft 435 kts 270°
2026-05-08 21:57 67.02008 -131.27550 32987 ft 435 kts 270°
2026-05-08 21:57 67.02183 -131.42996 32974 ft 434 kts 270°
2026-05-08 21:58 67.02343 -131.58426 32994 ft 433 kts 270°
2026-05-08 21:58 67.02487 -131.73841 32994 ft 433 kts 269°
2026-05-08 21:59 67.02616 -131.89235 32995 ft 432 kts 269°
2026-05-08 21:59 67.02730 -132.04514 32997 ft 432 kts 269°
2026-05-08 22:00 67.02830 -132.19902 33008 ft 432 kts 269°
2026-05-08 22:00 67.02914 -132.35264 33076 ft 431 kts 269°
2026-05-08 22:01 67.02984 -132.50666 33028 ft 433 kts 269°
2026-05-08 22:01 67.03040 -132.66110 33040 ft 432 kts 268°
2026-05-08 22:02 67.03080 -132.81394 33042 ft 432 kts 268°
2026-05-08 22:02 67.03105 -132.96784 33051 ft 432 kts 268°
2026-05-08 22:03 67.03115 -133.12171 33050 ft 432 kts 268°
2026-05-08 22:03 67.03111 -133.27572 33064 ft 432 kts 268°
2026-05-08 22:04 67.03092 -133.42927 33074 ft 431 kts 268°
2026-05-08 22:04 67.03059 -133.58211 33080 ft 431 kts 267°
2026-05-08 22:05 67.03010 -133.73582 33090 ft 432 kts 267°
2026-05-08 22:05 67.02947 -133.88962 33100 ft 432 kts 266°
2026-05-08 22:06 67.02868 -134.04353 33096 ft 432 kts 266°
2026-05-08 22:06 67.02775 -134.19746 33101 ft 432 kts 266°
2026-05-08 22:07 67.02667 -134.35129 33109 ft 432 kts 266°
2026-05-08 22:07 67.02544 -134.50518 33115 ft 432 kts 266°
2026-05-08 22:08 67.02406 -134.65880 33108 ft 432 kts 266°
2026-05-08 22:08 67.02255 -134.81137 33120 ft 431 kts 266°
2026-05-08 22:09 67.02088 -134.96494 33122 ft 431 kts 266°
2026-05-08 22:09 67.01906 -135.11862 33124 ft 433 kts 265°
2026-05-08 22:10 67.01709 -135.27272 33113 ft 433 kts 265°
2026-05-08 22:10 67.01496 -135.42710 33103 ft 434 kts 265°
2026-05-08 22:11 67.01269 -135.58048 33110 ft 435 kts 265°
2026-05-08 22:11 67.01027 -135.73511 33104 ft 434 kts 264°
2026-05-08 22:12 67.00770 -135.88938 33068 ft 434 kts 264°
2026-05-08 22:12 67.00498 -136.04350 33061 ft 434 kts 264°
2026-05-08 22:13 67.00210 -136.19747 33069 ft 433 kts 264°
2026-05-08 22:13 66.99908 -136.35146 33013 ft 434 kts 264°
2026-05-08 22:14 66.99590 -136.50580 33014 ft 435 kts 264°
2026-05-08 22:14 66.99259 -136.65963 33014 ft 436 kts 263°
2026-05-08 22:15 66.98910 -136.81471 32978 ft 436 kts 263°
2026-05-08 22:15 66.98546 -136.96957 32984 ft 437 kts 263°
2026-05-08 22:16 66.98166 -137.12453 32977 ft 437 kts 263°
2026-05-08 22:16 66.97772 -137.27948 32968 ft 436 kts 263°
2026-05-08 22:17 66.97363 -137.43415 32971 ft 436 kts 263°
2026-05-08 22:17 66.96942 -137.58773 32969 ft 436 kts 263°
2026-05-08 22:18 66.96502 -137.74270 32970 ft 437 kts 262°
2026-05-08 22:18 66.96046 -137.89776 32966 ft 438 kts 262°
2026-05-08 22:19 66.95574 -138.05311 32966 ft 439 kts 262°
2026-05-08 22:19 66.95090 -138.20730 32963 ft 439 kts 262°
2026-05-08 22:20 66.94588 -138.36262 32964 ft 439 kts 262°
2026-05-08 22:20 66.94070 -138.51792 32971 ft 439 kts 262°
2026-05-08 22:21 66.93628 -138.64708 32973 ft 439 kts 262°
2026-05-08 22:21 66.93085 -138.80192 32970 ft 438 kts 261°
2026-05-08 22:22 66.92523 -138.95719 32988 ft 439 kts 261°
2026-05-08 22:22 66.91949 -139.11170 32978 ft 441 kts 261°
2026-05-08 22:23 66.91355 -139.26751 32964 ft 442 kts 261°
2026-05-08 22:23 66.90743 -139.42373 32963 ft 443 kts 261°
2026-05-08 22:24 66.90116 -139.58003 32973 ft 443 kts 261°
2026-05-08 22:24 66.89473 -139.73625 32952 ft 443 kts 261°
2026-05-08 22:25 66.88819 -139.89236 32951 ft 444 kts 260°
2026-05-08 22:25 66.88143 -140.04829 32946 ft 443 kts 260°
2026-05-08 22:26 66.87460 -140.20295 32931 ft 442 kts 260°
2026-05-08 22:26 66.86759 -140.35828 32921 ft 442 kts 260°
2026-05-08 22:27 66.86043 -140.51356 32928 ft 441 kts 260°
2026-05-08 22:27 66.85313 -140.66843 32943 ft 441 kts 259°
2026-05-08 22:28 66.84572 -140.82324 32943 ft 441 kts 259°
2026-05-08 22:28 66.83924 -140.97832 32941 ft 443 kts 264°
2026-05-08 22:29 66.84163 -141.13438 32946 ft 448 kts 271°
2026-05-08 22:29 66.84804 -141.29186 32907 ft 448 kts 271°
2026-05-08 22:30 66.85411 -141.44977 32925 ft 450 kts 271°
2026-05-08 22:30 66.85992 -141.60828 32936 ft 451 kts 271°
2026-05-08 22:31 66.86557 -141.76790 32932 ft 453 kts 270°
2026-05-08 22:31 66.87108 -141.92823 32907 ft 456 kts 270°
2026-05-08 22:32 66.87644 -142.08896 32914 ft 456 kts 270°
2026-05-08 22:32 66.88162 -142.24881 32905 ft 456 kts 270°
2026-05-08 22:33 66.88667 -142.40973 32915 ft 454 kts 270°
2026-05-08 22:33 66.89154 -142.57045 32903 ft 456 kts 270°
2026-05-08 22:34 66.89622 -142.73058 32923 ft 457 kts 270°
2026-05-08 22:34 66.90079 -142.89232 32928 ft 458 kts 270°
2026-05-08 22:35 66.90522 -143.05498 32910 ft 460 kts 270°
2026-05-08 22:35 66.90949 -143.21763 32911 ft 460 kts 269°
2026-05-08 22:36 66.91360 -143.38057 32912 ft 460 kts 269°
2026-05-08 22:36 66.91750 -143.54217 32962 ft 460 kts 269°
2026-05-08 22:37 66.92127 -143.70528 32935 ft 461 kts 269°
2026-05-08 22:37 66.92487 -143.86865 32915 ft 462 kts 269°
2026-05-08 22:38 66.92833 -144.03276 32930 ft 463 kts 269°
2026-05-08 22:38 66.93161 -144.19692 32932 ft 464 kts 269°
2026-05-08 22:39 66.93473 -144.36130 32935 ft 464 kts 269°
2026-05-08 22:39 66.93768 -144.52562 32940 ft 464 kts 268°
2026-05-08 22:40 66.94044 -144.69022 32940 ft 465 kts 269°
2026-05-08 22:40 66.94305 -144.85443 32956 ft 467 kts 269°
2026-05-08 22:41 66.94550 -145.02011 32956 ft 468 kts 268°
2026-05-08 22:41 66.94779 -145.18635 32935 ft 469 kts 268°
2026-05-08 22:42 66.94991 -145.35279 32943 ft 470 kts 268°
2026-05-08 22:42 66.95186 -145.51969 32948 ft 469 kts 268°
2026-05-08 22:43 66.95363 -145.68629 32969 ft 469 kts 268°
2026-05-08 22:43 66.95521 -145.85204 32933 ft 470 kts 268°
2026-05-08 22:44 66.95663 -146.01918 32924 ft 471 kts 268°
2026-05-08 22:44 66.95789 -146.18683 32928 ft 472 kts 268°
2026-05-08 22:45 66.95895 -146.35381 32925 ft 473 kts 268°
2026-05-08 22:45 66.95986 -146.52172 32906 ft 473 kts 268°
2026-05-08 22:46 66.96058 -146.69007 32904 ft 474 kts 267°
2026-05-08 22:46 66.96112 -146.85848 32912 ft 475 kts 268°
2026-05-08 22:47 66.96149 -147.02670 32895 ft 477 kts 268°
2026-05-08 22:47 66.96168 -147.19600 32889 ft 477 kts 267°
2026-05-08 22:48 66.96169 -147.36564 32884 ft 478 kts 267°
2026-05-08 22:48 66.96152 -147.53551 32883 ft 478 kts 267°
2026-05-08 22:49 66.96117 -147.70543 32891 ft 477 kts 267°
2026-05-08 22:49 66.96030 -147.95905 32883 ft 479 kts 267°
2026-05-08 22:50 66.95951 -148.12900 32877 ft 479 kts 267°
2026-05-08 22:50 66.95851 -148.29950 32887 ft 480 kts 267°
2026-05-08 22:51 66.95733 -148.47013 32884 ft 481 kts 267°
2026-05-08 22:51 66.95597 -148.64083 32874 ft 481 kts 266°
2026-05-08 22:52 66.95445 -148.81081 32881 ft 481 kts 266°
2026-05-08 22:52 66.95271 -148.98171 32890 ft 482 kts 267°
2026-05-08 22:53 66.95080 -149.15283 32897 ft 483 kts 267°
2026-05-08 22:53 66.94871 -149.32393 32893 ft 483 kts 266°
2026-05-08 22:54 66.94642 -149.49460 32887 ft 484 kts 266°
2026-05-08 22:54 66.94397 -149.66610 32902 ft 483 kts 266°
2026-05-08 22:55 66.94132 -149.83717 32898 ft 483 kts 266°
2026-05-08 22:55 66.93848 -150.00852 32913 ft 483 kts 266°
2026-05-08 22:56 66.93546 -150.17973 32907 ft 484 kts 266°
2026-05-08 22:56 66.93226 -150.35155 32909 ft 485 kts 266°
2026-05-08 22:57 66.92884 -150.52336 32911 ft 485 kts 266°
2026-05-08 22:57 66.92524 -150.69531 32910 ft 485 kts 266°
2026-05-08 22:58 66.92147 -150.86625 32911 ft 485 kts 266°
2026-05-08 22:58 66.91753 -151.03762 32905 ft 484 kts 265°
2026-05-08 22:59 66.91340 -151.20891 32891 ft 484 kts 265°
2026-05-08 22:59 66.90910 -151.38001 32887 ft 484 kts 265°
2026-05-08 23:00 66.90228 -151.55024 32894 ft 482 kts 258°
2026-05-08 23:00 66.88438 -151.71455 32893 ft 482 kts 252°
2026-05-08 23:01 66.86411 -151.87732 32929 ft 483 kts 252°
2026-05-08 23:01 66.84410 -152.03927 32922 ft 484 kts 252°
2026-05-08 23:02 66.82396 -152.20257 32927 ft 485 kts 252°
2026-05-08 23:02 66.80365 -152.36588 32932 ft 485 kts 252°
2026-05-08 23:03 66.78313 -152.52930 32920 ft 486 kts 252°
2026-05-08 23:03 66.76257 -152.69145 32937 ft 486 kts 252°
2026-05-08 23:04 66.74169 -152.85446 32929 ft 487 kts 252°
2026-05-08 23:04 66.72063 -153.01727 32935 ft 487 kts 251°
2026-05-08 23:05 66.69937 -153.18005 32932 ft 486 kts 251°
2026-05-08 23:05 66.67801 -153.34204 32930 ft 486 kts 251°
2026-05-08 23:06 66.65652 -153.50353 32931 ft 486 kts 251°
2026-05-08 23:06 66.63494 -153.66412 32913 ft 487 kts 252°
2026-05-08 23:07 66.61303 -153.82565 32918 ft 487 kts 252°
2026-05-08 23:07 66.59093 -153.98713 32913 ft 488 kts 251°
2026-05-08 23:08 66.56859 -154.14882 32911 ft 489 kts 251°
2026-05-08 23:08 66.54620 -154.30927 32914 ft 490 kts 251°
2026-05-08 23:09 66.52351 -154.47051 32912 ft 489 kts 251°
2026-05-08 23:09 66.50065 -154.63158 32917 ft 490 kts 251°
2026-05-08 23:10 66.47766 -154.79226 32921 ft 490 kts 251°
2026-05-08 23:10 66.45458 -154.95162 32926 ft 491 kts 251°
2026-05-08 23:11 66.43113 -155.11226 32928 ft 492 kts 251°
2026-05-08 23:11 66.41149 -155.24558 32931 ft 492 kts 251°
2026-05-08 23:12 66.38774 -155.40588 32928 ft 492 kts 251°
2026-05-08 23:12 66.36382 -155.56593 32941 ft 492 kts 250°
2026-05-08 23:13 66.33971 -155.72557 32935 ft 492 kts 250°
2026-05-08 23:13 66.31544 -155.88503 32932 ft 493 kts 251°
2026-05-08 23:14 66.29102 -156.04421 32953 ft 493 kts 251°
2026-05-08 23:14 66.26637 -156.20346 32956 ft 494 kts 250°
2026-05-08 23:15 66.24167 -156.36156 32955 ft 494 kts 250°
2026-05-08 23:15 66.21665 -156.52042 32968 ft 494 kts 250°
2026-05-08 23:16 66.19142 -156.67918 32969 ft 495 kts 250°
2026-05-08 23:16 66.16607 -156.83750 32965 ft 495 kts 250°
2026-05-08 23:17 66.14055 -156.99555 32929 ft 495 kts 251°
2026-05-08 23:17 66.11486 -157.15325 32912 ft 495 kts 250°
2026-05-08 23:18 66.08898 -157.31076 32917 ft 496 kts 250°
2026-05-08 23:18 66.06304 -157.46743 32897 ft 497 kts 250°
2026-05-08 23:19 66.03672 -157.62506 32875 ft 497 kts 250°
2026-05-08 23:19 66.01029 -157.78215 32880 ft 497 kts 250°
2026-05-08 23:20 65.98369 -157.93890 32883 ft 497 kts 250°
2026-05-08 23:20 65.95689 -158.09556 32849 ft 497 kts 250°
2026-05-08 23:21 65.93015 -158.25063 32874 ft 497 kts 250°
2026-05-08 23:21 65.90303 -158.40667 32898 ft 498 kts 250°
2026-05-08 23:22 65.87572 -158.56259 32887 ft 499 kts 250°
2026-05-08 23:22 65.84817 -158.71864 32881 ft 500 kts 250°
2026-05-08 23:23 65.82045 -158.87439 32904 ft 500 kts 250°
2026-05-08 23:23 65.79257 -159.02979 32891 ft 500 kts 250°
2026-05-08 23:24 65.76455 -159.18480 32906 ft 500 kts 250°
2026-05-08 23:24 65.73645 -159.33904 32990 ft 499 kts 250°
2026-05-08 23:25 65.70832 -159.49224 32992 ft 500 kts 250°
2026-05-08 23:25 65.67982 -159.64630 33022 ft 500 kts 250°
2026-05-08 23:26 65.65112 -159.80032 33019 ft 501 kts 250°
2026-05-08 23:26 65.62236 -159.95338 33013 ft 502 kts 250°
2026-05-08 23:27 65.59327 -160.10710 33003 ft 502 kts 250°
2026-05-08 23:27 65.56401 -160.26053 33010 ft 502 kts 250°
2026-05-08 23:28 65.53470 -160.41313 33013 ft 502 kts 250°
2026-05-08 23:28 65.50511 -160.56602 33006 ft 503 kts 250°
2026-05-08 23:29 65.47551 -160.71781 33020 ft 503 kts 250°
2026-05-08 23:29 65.44555 -160.87030 33017 ft 504 kts 250°
2026-05-08 23:30 65.41538 -161.02271 33021 ft 504 kts 250°
2026-05-08 23:30 65.38525 -161.17378 32996 ft 504 kts 250°
2026-05-08 23:31 65.35485 -161.32511 33017 ft 503 kts 250°
2026-05-08 23:31 65.32432 -161.47595 33012 ft 503 kts 250°
2026-05-08 23:32 65.29363 -161.62663 33013 ft 504 kts 250°
2026-05-08 23:32 65.26279 -161.77699 33007 ft 505 kts 250°
2026-05-08 23:33 65.23170 -161.92736 33036 ft 505 kts 250°
2026-05-08 23:33 65.20064 -162.07649 33035 ft 505 kts 249°
2026-05-08 23:34 65.16925 -162.22618 33033 ft 505 kts 249°
2026-05-08 23:34 65.13765 -162.37579 33028 ft 505 kts 249°
2026-05-08 23:35 65.10595 -162.52482 33038 ft 505 kts 249°
2026-05-08 23:35 65.07432 -162.67255 33033 ft 505 kts 249°
2026-05-08 23:36 65.04235 -162.82077 33034 ft 505 kts 249°
2026-05-08 23:36 65.01024 -162.96854 33031 ft 505 kts 249°
2026-05-08 23:37 64.97798 -163.11608 33024 ft 505 kts 249°
2026-05-08 23:37 64.94556 -163.26327 33015 ft 505 kts 248°
2026-05-08 23:38 64.91303 -163.40993 33010 ft 504 kts 248°
2026-05-08 23:38 64.88059 -163.55529 33023 ft 503 kts 248°
2026-05-08 23:39 64.84782 -163.70113 33032 ft 505 kts 248°
2026-05-08 23:39 64.81484 -163.84685 33015 ft 506 kts 248°
2026-05-08 23:40 64.78157 -163.99289 33027 ft 507 kts 248°
2026-05-08 23:40 64.74816 -164.13851 33026 ft 507 kts 247°
2026-05-08 23:41 64.71461 -164.28382 33042 ft 507 kts 247°
2026-05-08 23:41 64.68110 -164.42794 33050 ft 507 kts 247°
2026-05-08 23:42 64.64727 -164.57242 33019 ft 506 kts 247°
2026-05-08 23:42 64.61339 -164.71621 33052 ft 506 kts 247°
2026-05-08 23:43 64.57932 -164.85993 33036 ft 506 kts 246°
2026-05-08 23:43 64.54513 -165.00321 33041 ft 506 kts 246°
2026-05-08 23:44 64.51082 -165.14611 33060 ft 507 kts 246°
2026-05-08 23:44 64.47622 -165.28873 33056 ft 508 kts 245°
2026-05-08 23:45 64.44029 -165.42875 33049 ft 509 kts 244°
2026-05-08 23:45 64.40349 -165.56898 33043 ft 508 kts 244°
2026-05-08 23:46 64.36685 -165.70872 33051 ft 508 kts 244°
2026-05-08 23:46 64.33020 -165.84837 33050 ft 508 kts 244°
2026-05-08 23:47 64.29343 -165.98771 33043 ft 509 kts 244°
2026-05-08 23:47 64.25674 -166.12580 33053 ft 508 kts 243°
2026-05-08 23:48 64.21969 -166.26435 33050 ft 508 kts 243°
2026-05-08 23:48 64.18255 -166.40238 33061 ft 508 kts 243°
2026-05-08 23:49 64.14527 -166.54024 33055 ft 508 kts 243°
2026-05-08 23:49 64.10793 -166.67776 33065 ft 508 kts 243°
2026-05-08 23:50 64.07068 -166.81509 33062 ft 508 kts 242°
2026-05-08 23:50 64.03333 -166.95213 33072 ft 508 kts 242°
2026-05-08 23:51 63.99607 -167.08793 33075 ft 508 kts 242°
2026-05-08 23:51 63.95841 -167.22432 33077 ft 508 kts 242°
2026-05-08 23:52 63.92063 -167.36025 33076 ft 508 kts 242°
2026-05-08 23:52 63.88276 -167.49569 33077 ft 507 kts 242°
2026-05-08 23:53 63.84480 -167.63062 33080 ft 507 kts 241°
2026-05-08 23:53 63.80673 -167.76522 33084 ft 507 kts 241°
2026-05-08 23:54 63.76853 -167.89940 33086 ft 507 kts 241°
2026-05-08 23:55 63.71134 -168.09878 33087 ft 506 kts 240°
2026-05-08 23:55 63.67292 -168.23178 33095 ft 506 kts 240°
2026-05-08 23:56 63.63422 -168.36495 33057 ft 506 kts 240°
2026-05-08 23:56 63.59562 -168.49701 33098 ft 505 kts 240°
2026-05-08 23:57 63.55690 -168.62870 33105 ft 505 kts 239°
2026-05-08 23:57 63.51833 -168.75910 33099 ft 505 kts 239°
2026-05-08 23:58 63.47939 -168.89002 33106 ft 504 kts 239°
2026-05-08 23:58 63.44038 -169.02042 33104 ft 504 kts 239°
2026-05-08 23:59 63.40125 -169.15051 33105 ft 504 kts 239°
2026-05-08 23:59 63.36204 -169.28017 33080 ft 504 kts 239°
2026-05-09 00:00 63.32940 -169.38754 33103 ft 503 kts 238°
2026-05-09 00:00 63.28362 -169.53726 33128 ft 503 kts 238°
2026-05-09 00:01 63.24417 -169.66569 33116 ft 503 kts 238°
2026-05-09 00:01 63.20455 -169.79399 33113 ft 503 kts 238°
2026-05-09 00:02 63.17161 -169.90012 33113 ft 503 kts 238°
2026-05-09 00:02 63.13186 -170.02754 33114 ft 503 kts 238°
2026-05-09 00:03 63.09200 -170.15455 33116 ft 503 kts 237°
2026-05-09 00:03 63.05219 -170.28073 33115 ft 502 kts 237°
2026-05-09 00:04 63.01219 -170.40677 33115 ft 502 kts 237°
2026-05-09 00:04 62.97205 -170.53260 33110 ft 501 kts 237°
2026-05-09 00:05 62.93185 -170.65790 33118 ft 501 kts 237°
2026-05-09 00:05 62.89156 -170.78279 33119 ft 501 kts 237°
2026-05-09 00:06 62.85141 -170.90659 33123 ft 501 kts 237°
2026-05-09 00:06 62.81087 -171.03090 33127 ft 501 kts 236°
2026-05-09 00:07 62.77026 -171.15479 33120 ft 500 kts 236°
2026-05-09 00:07 62.72961 -171.27809 33124 ft 500 kts 236°
2026-05-09 00:08 62.68884 -171.40110 33124 ft 500 kts 236°
2026-05-09 00:08 62.64802 -171.52361 33126 ft 500 kts 236°
2026-05-09 00:09 62.60736 -171.64510 33123 ft 500 kts 235°
2026-05-09 00:09 62.56622 -171.76722 33131 ft 500 kts 235°
2026-05-09 00:10 62.52509 -171.88868 33130 ft 500 kts 235°
2026-05-09 00:10 62.48388 -172.00985 33126 ft 500 kts 235°
2026-05-09 00:11 62.44248 -172.13094 33127 ft 499 kts 234°
2026-05-09 00:11 62.40111 -172.25134 33129 ft 499 kts 234°
2026-05-09 00:12 62.35962 -172.37144 33131 ft 499 kts 234°
2026-05-09 00:12 62.31829 -172.49047 33128 ft 499 kts 234°
2026-05-09 00:13 62.27660 -172.60990 33128 ft 499 kts 234°
2026-05-09 00:13 62.23480 -172.72901 33110 ft 499 kts 233°
2026-05-09 00:14 62.19290 -172.84778 33123 ft 498 kts 233°
2026-05-09 00:14 62.15099 -172.96596 33130 ft 498 kts 233°
2026-05-09 00:15 62.10919 -173.08324 33128 ft 498 kts 233°
2026-05-09 00:15 62.06712 -173.20068 33129 ft 498 kts 233°
2026-05-09 00:16 62.02487 -173.31801 33129 ft 499 kts 233°
2026-05-09 00:16 61.98249 -173.43510 33129 ft 499 kts 233°
2026-05-09 00:17 61.94001 -173.55186 33115 ft 499 kts 232°
2026-05-09 00:17 61.89745 -173.66828 33130 ft 498 kts 232°
2026-05-09 00:18 61.85518 -173.78327 33129 ft 498 kts 232°
2026-05-09 00:18 61.81251 -173.89880 33127 ft 498 kts 232°
2026-05-09 00:19 61.76974 -174.01400 33128 ft 498 kts 232°
2026-05-09 00:19 61.72697 -174.12866 33125 ft 497 kts 232°
2026-05-09 00:20 61.68404 -174.24317 33124 ft 497 kts 232°
2026-05-09 00:20 61.64105 -174.35727 33117 ft 497 kts 231°
2026-05-09 00:21 61.59828 -174.47029 33123 ft 496 kts 231°
2026-05-09 00:21 61.55513 -174.58347 33127 ft 496 kts 231°
2026-05-09 00:22 61.51180 -174.69631 33139 ft 496 kts 231°
2026-05-09 00:22 61.46849 -174.80863 33126 ft 496 kts 231°
2026-05-09 00:23 61.42535 -174.92001 33124 ft 496 kts 231°
2026-05-09 00:23 61.38189 -175.03172 33125 ft 495 kts 230°
2026-05-09 00:24 61.33837 -175.14307 33123 ft 495 kts 230°
2026-05-09 00:24 61.29469 -175.25424 33128 ft 495 kts 230°
2026-05-09 00:25 61.25104 -175.36476 33131 ft 494 kts 230°
2026-05-09 00:25 61.20736 -175.47485 33122 ft 494 kts 230°
2026-05-09 00:26 61.16371 -175.58437 33126 ft 494 kts 229°
2026-05-09 00:26 61.11989 -175.69375 33117 ft 494 kts 229°
2026-05-09 00:27 61.07590 -175.80307 33116 ft 493 kts 229°
2026-05-09 00:27 61.03193 -175.91181 33118 ft 493 kts 229°
2026-05-09 00:28 60.98785 -176.02030 33118 ft 493 kts 229°
2026-05-09 00:28 60.94390 -176.12793 33125 ft 493 kts 228°
2026-05-09 00:29 60.89968 -176.23572 33113 ft 493 kts 228°
2026-05-09 00:29 60.85539 -176.34319 33115 ft 493 kts 228°
2026-05-09 00:30 60.81102 -176.45036 33111 ft 493 kts 228°
2026-05-09 00:30 60.76656 -176.55724 33113 ft 493 kts 228°
2026-05-09 00:31 60.72204 -176.66384 33114 ft 493 kts 227°
2026-05-09 00:31 60.67766 -176.76946 33111 ft 493 kts 227°
2026-05-09 00:32 60.63291 -176.87550 33109 ft 493 kts 227°
2026-05-09 00:32 60.58810 -176.98122 33103 ft 492 kts 227°
2026-05-09 00:33 60.54322 -177.08665 33104 ft 492 kts 227°
2026-05-09 00:33 60.49832 -177.19160 33102 ft 492 kts 227°
2026-05-09 00:34 60.45363 -177.29561 33098 ft 492 kts 227°
2026-05-09 00:34 60.40850 -177.40019 33107 ft 492 kts 226°
2026-05-09 00:35 60.36338 -177.50421 33094 ft 492 kts 226°
2026-05-09 00:35 60.31818 -177.60796 33091 ft 491 kts 226°
2026-05-09 00:36 60.27293 -177.71137 33096 ft 491 kts 226°
2026-05-09 00:36 60.22770 -177.81433 33089 ft 491 kts 226°
2026-05-09 00:37 60.18264 -177.91668 33084 ft 491 kts 226°
2026-05-09 00:37 60.13837 -178.02155 33105 ft 492 kts 227°
2026-05-09 00:38 60.09456 -178.12691 33085 ft 492 kts 227°
2026-05-09 00:38 60.05058 -178.23178 33078 ft 492 kts 227°
2026-05-09 00:39 60.00669 -178.33545 33081 ft 491 kts 227°
2026-05-09 00:39 59.96235 -178.43951 33069 ft 491 kts 227°
2026-05-09 00:40 59.91795 -178.54323 33067 ft 491 kts 227°
2026-05-09 00:40 59.87355 -178.64652 33089 ft 491 kts 226°
2026-05-09 00:41 59.80702 -178.80045 33058 ft 490 kts 226°
2026-05-09 00:41 59.76243 -178.90303 33061 ft 490 kts 226°
2026-05-09 00:42 59.71787 -179.00511 33056 ft 489 kts 226°
2026-05-09 00:42 59.67321 -179.10694 33052 ft 489 kts 226°
2026-05-09 00:43 59.62848 -179.20850 33049 ft 489 kts 226°
2026-05-09 00:43 59.58391 -179.30922 33056 ft 489 kts 226°
2026-05-09 00:44 59.53907 -179.41015 33044 ft 489 kts 226°
2026-05-09 00:44 59.49411 -179.51087 33043 ft 489 kts 226°
2026-05-09 00:45 59.44916 -179.61116 33039 ft 489 kts 226°
2026-05-09 00:45 59.40435 -179.71069 33038 ft 489 kts 226°
2026-05-09 00:46 59.35920 -179.81053 33033 ft 489 kts 226°
2026-05-09 00:46 59.31398 -179.91009 33032 ft 488 kts 226°
2026-05-09 00:47 59.26871 179.99066 33041 ft 488 kts 225°
2026-05-09 00:47 59.22341 179.89176 33022 ft 488 kts 225°
2026-05-09 00:48 59.17803 179.79313 33021 ft 488 kts 225°
2026-05-09 00:48 59.13289 179.69543 33027 ft 487 kts 225°
2026-05-09 00:49 59.08737 179.59734 33027 ft 487 kts 225°
2026-05-09 00:49 59.04190 179.49976 33037 ft 487 kts 225°
2026-05-09 00:50 58.99632 179.40238 33025 ft 487 kts 225°
2026-05-09 00:50 58.95067 179.30526 33022 ft 487 kts 225°
2026-05-09 00:51 58.90504 179.20857 33010 ft 486 kts 225°
2026-05-09 00:51 58.85934 179.11215 33010 ft 486 kts 225°
2026-05-09 00:52 58.81392 179.01672 33009 ft 485 kts 225°
2026-05-09 00:52 58.76812 178.92091 33002 ft 485 kts 224°
2026-05-09 00:53 58.72229 178.82544 33011 ft 486 kts 224°
2026-05-09 00:53 58.67631 178.73003 33005 ft 486 kts 224°
2026-05-09 00:54 58.63800 178.65084 33000 ft 486 kts 224°
2026-05-09 00:54 58.59193 178.55599 32996 ft 486 kts 224°
2026-05-09 00:55 58.54578 178.46136 32989 ft 486 kts 224°
2026-05-09 00:55 58.49954 178.36695 32989 ft 486 kts 224°
2026-05-09 00:56 58.45325 178.27280 32996 ft 486 kts 224°
2026-05-09 00:56 58.40719 178.17951 32980 ft 486 kts 224°
2026-05-09 00:57 58.36068 178.08571 32989 ft 485 kts 223°
2026-05-09 00:57 58.31421 177.99236 32970 ft 485 kts 223°
2026-05-09 00:58 58.26779 177.89949 32972 ft 484 kts 223°
2026-05-09 00:58 58.22157 177.80739 32968 ft 484 kts 223°
2026-05-09 00:59 58.17507 177.71513 32976 ft 484 kts 223°
2026-05-09 00:59 58.12846 177.62302 32963 ft 484 kts 223°
2026-05-09 01:00 58.08178 177.53113 32978 ft 483 kts 223°
2026-05-09 01:00 58.03511 177.43963 32958 ft 483 kts 222°
2026-05-09 01:01 57.98841 177.34845 32951 ft 483 kts 222°
2026-05-09 01:01 57.94200 177.25818 32941 ft 482 kts 222°
2026-05-09 01:02 57.89530 177.16771 32943 ft 482 kts 222°
2026-05-09 01:02 57.84849 177.07739 32939 ft 482 kts 222°
2026-05-09 01:03 57.80162 176.98730 32931 ft 482 kts 222°
2026-05-09 01:03 57.75477 176.89759 32933 ft 481 kts 221°
2026-05-09 01:04 57.70813 176.80866 32922 ft 481 kts 221°
2026-05-09 01:04 57.66113 176.71939 32922 ft 481 kts 221°
2026-05-09 01:05 57.61415 176.63050 32913 ft 481 kts 221°
2026-05-09 01:06 57.54338 176.49722 32902 ft 483 kts 221°
2026-05-09 01:06 57.49609 176.40856 32903 ft 482 kts 221°
2026-05-09 01:07 57.44931 176.31994 32909 ft 482 kts 221°
2026-05-09 01:07 57.40255 176.23086 32896 ft 482 kts 221°
2026-05-09 01:08 57.35578 176.14214 32892 ft 481 kts 221°
2026-05-09 01:08 57.30893 176.05375 32910 ft 481 kts 221°
2026-05-09 01:09 57.26196 175.96556 32895 ft 480 kts 221°
2026-05-09 01:09 57.21501 175.87775 32887 ft 480 kts 220°
2026-05-09 01:10 57.16808 175.79030 32890 ft 479 kts 220°
2026-05-09 01:10 57.12145 175.70376 32877 ft 478 kts 220°
2026-05-09 01:11 57.07454 175.61702 32877 ft 477 kts 220°
2026-05-09 01:11 57.02768 175.53071 32895 ft 477 kts 220°
2026-05-09 01:12 56.98068 175.44446 32882 ft 478 kts 220°
2026-05-09 01:12 56.93349 175.35820 32869 ft 478 kts 220°
2026-05-09 01:13 56.88633 175.27229 32886 ft 479 kts 220°
2026-05-09 01:13 56.83893 175.18628 32871 ft 480 kts 220°
2026-05-09 01:14 56.79168 175.10089 32859 ft 480 kts 220°
2026-05-09 01:14 56.74424 175.01542 32871 ft 479 kts 220°
2026-05-09 01:15 56.69671 174.93014 32872 ft 479 kts 220°
2026-05-09 01:15 56.64907 174.84499 32867 ft 480 kts 220°
2026-05-09 01:16 56.60136 174.76003 32863 ft 480 kts 220°
2026-05-09 01:16 56.55364 174.67537 32869 ft 479 kts 220°
2026-05-09 01:17 56.48235 174.54948 32871 ft 479 kts 220°
2026-05-09 01:17 56.43451 174.46540 32871 ft 479 kts 220°
2026-05-09 01:18 56.38662 174.38153 32869 ft 479 kts 220°
2026-05-09 01:18 56.33860 174.29775 32868 ft 479 kts 220°
2026-05-09 01:19 56.29058 174.21428 32880 ft 480 kts 220°
2026-05-09 01:19 56.24249 174.13098 32877 ft 480 kts 220°
2026-05-09 01:20 56.19460 174.04833 32876 ft 480 kts 220°
2026-05-09 01:20 56.14644 173.96554 32884 ft 479 kts 220°
2026-05-09 01:21 56.09829 173.88305 32879 ft 479 kts 220°
2026-05-09 01:21 56.05001 173.80065 32881 ft 479 kts 220°
2026-05-09 01:22 56.00177 173.71862 32894 ft 479 kts 221°
2026-05-09 01:22 55.95349 173.63681 32887 ft 478 kts 221°
2026-05-09 01:23 55.90518 173.55524 32888 ft 478 kts 221°
2026-05-09 01:23 55.85718 173.47448 32890 ft 477 kts 221°
2026-05-09 01:24 55.80883 173.39343 32890 ft 477 kts 221°
2026-05-09 01:24 55.76049 173.31269 32890 ft 477 kts 221°
2026-05-09 01:25 55.71205 173.23209 32909 ft 477 kts 221°
2026-05-09 01:25 55.66353 173.15163 32898 ft 477 kts 221°
2026-05-09 01:26 55.61501 173.07143 32895 ft 477 kts 221°
2026-05-09 01:26 55.56643 172.99145 32894 ft 477 kts 221°
2026-05-09 01:27 55.51803 172.91201 32896 ft 477 kts 221°
2026-05-09 01:27 55.46939 172.83247 32901 ft 477 kts 221°
2026-05-09 01:28 55.42067 172.75310 32915 ft 477 kts 222°
2026-05-09 01:28 55.37185 172.67385 32903 ft 477 kts 222°
2026-05-09 01:29 55.32336 172.59537 32903 ft 477 kts 222°
2026-05-09 01:29 55.27452 172.51662 32902 ft 476 kts 222°
2026-05-09 01:30 55.22566 172.43810 32907 ft 476 kts 222°
2026-05-09 01:30 55.17677 172.35983 32906 ft 476 kts 222°
2026-05-09 01:31 55.12790 172.28187 32917 ft 475 kts 223°
2026-05-09 01:31 55.07892 172.20397 32905 ft 475 kts 223°
2026-05-09 01:32 55.03022 172.12677 32904 ft 475 kts 222°
2026-05-09 01:32 54.98120 172.04933 32904 ft 475 kts 223°
2026-05-09 01:33 54.93271 171.97136 32904 ft 474 kts 226°
2026-05-09 01:33 54.89049 171.88440 32910 ft 473 kts 231°
2026-05-09 01:34 54.84897 171.79555 32917 ft 472 kts 231°
2026-05-09 01:34 54.80729 171.70739 32910 ft 472 kts 231°
2026-05-09 01:35 54.76574 171.62021 32912 ft 471 kts 231°
2026-05-09 01:35 54.72394 171.53285 32912 ft 471 kts 231°
2026-05-09 01:36 54.68215 171.44582 32907 ft 470 kts 231°
2026-05-09 01:36 54.64039 171.35914 32914 ft 469 kts 231°
2026-05-09 01:37 54.59868 171.27288 32912 ft 467 kts 232°
2026-05-09 01:37 54.55702 171.18697 32909 ft 466 kts 232°
2026-05-09 01:38 54.51536 171.10139 32912 ft 466 kts 231°
2026-05-09 01:38 54.47366 171.01604 32912 ft 466 kts 231°
2026-05-09 01:39 54.43191 170.93085 32916 ft 466 kts 231°
2026-05-09 01:39 54.39031 170.84632 32906 ft 465 kts 232°
2026-05-09 01:40 54.34857 170.76174 32913 ft 464 kts 232°
2026-05-09 01:40 54.30680 170.67741 32914 ft 463 kts 232°
2026-05-09 01:41 54.26534 170.59398 32914 ft 462 kts 232°
2026-05-09 01:41 54.22359 170.51026 32915 ft 462 kts 232°
2026-05-09 01:42 54.18186 170.42687 32913 ft 462 kts 232°
2026-05-09 01:42 54.14007 170.34363 32914 ft 461 kts 232°
2026-05-09 01:43 54.09834 170.26083 32895 ft 460 kts 232°
2026-05-09 01:43 54.05669 170.17845 32911 ft 458 kts 232°
2026-05-09 01:44 54.01513 170.09650 32915 ft 457 kts 232°
2026-05-09 01:44 53.97387 170.01540 32917 ft 456 kts 232°
2026-05-09 01:45 53.93233 169.93403 32917 ft 455 kts 232°
2026-05-09 01:45 53.89773 169.86645 32921 ft 455 kts 232°
2026-05-09 01:46 53.85610 169.78542 32920 ft 456 kts 232°
2026-05-09 01:46 53.81437 169.70442 32920 ft 456 kts 232°
2026-05-09 01:47 53.77248 169.62344 32916 ft 456 kts 232°
2026-05-09 01:47 53.73074 169.54295 32921 ft 455 kts 232°
2026-05-09 01:48 53.68929 169.46325 32921 ft 453 kts 233°
2026-05-09 01:48 53.64778 169.38357 32921 ft 451 kts 234°
2026-05-09 01:49 53.61172 169.29798 32920 ft 445 kts 244°
2026-05-09 01:49 53.58278 169.20622 32923 ft 444 kts 245°
2026-05-09 01:50 53.55358 169.11454 32922 ft 444 kts 245°
2026-05-09 01:50 53.52440 169.02379 32926 ft 444 kts 245°
2026-05-09 01:51 53.49491 168.93248 32920 ft 444 kts 245°
2026-05-09 01:51 53.46538 168.84135 32921 ft 444 kts 245°
2026-05-09 01:52 53.43577 168.75032 32920 ft 444 kts 244°
2026-05-09 01:52 53.40613 168.65950 32923 ft 444 kts 244°
2026-05-09 01:53 53.37645 168.56887 32926 ft 443 kts 244°
2026-05-09 01:53 53.34676 168.47857 32922 ft 442 kts 244°
2026-05-09 01:54 53.31705 168.38849 32923 ft 442 kts 244°
2026-05-09 01:54 53.28727 168.29869 32919 ft 441 kts 244°
2026-05-09 01:55 53.25753 168.20966 32923 ft 441 kts 244°
2026-05-09 01:55 53.22754 168.12020 32915 ft 440 kts 244°
2026-05-09 01:56 53.19761 168.03117 32919 ft 439 kts 244°
2026-05-09 01:56 53.16770 167.94246 32919 ft 439 kts 244°
2026-05-09 01:57 53.13776 167.85399 32919 ft 438 kts 244°
2026-05-09 01:57 53.10778 167.76572 32922 ft 437 kts 244°
2026-05-09 01:58 53.07777 167.67768 32910 ft 436 kts 244°
2026-05-09 01:58 53.04807 167.59084 32914 ft 434 kts 244°
2026-05-09 01:59 53.01820 167.50383 32916 ft 432 kts 244°
2026-05-09 01:59 52.98835 167.41716 32918 ft 432 kts 244°
2026-05-09 02:00 52.95845 167.33078 32922 ft 432 kts 244°
2026-05-09 02:00 52.92869 167.24488 32912 ft 432 kts 244°
2026-05-09 02:01 52.89865 167.15852 32919 ft 432 kts 244°
2026-05-09 02:01 52.86856 167.07236 32918 ft 432 kts 244°
2026-05-09 02:02 52.83842 166.98637 32912 ft 432 kts 244°
2026-05-09 02:02 52.80824 166.90055 32918 ft 432 kts 244°
2026-05-09 02:03 52.77798 166.81480 32918 ft 432 kts 244°
2026-05-09 02:03 52.74772 166.72940 32884 ft 429 kts 244°
2026-05-09 02:04 52.71784 166.64536 32904 ft 426 kts 245°
2026-05-09 02:04 52.68793 166.56144 32906 ft 423 kts 244°
2026-05-09 02:05 52.65812 166.47804 32914 ft 422 kts 244°
2026-05-09 02:05 52.62830 166.39494 32925 ft 421 kts 244°
2026-05-09 02:06 52.59841 166.31191 32919 ft 421 kts 244°
2026-05-09 02:07 52.55362 166.18801 32920 ft 421 kts 244°
2026-05-09 02:07 52.52356 166.10520 32922 ft 422 kts 244°
2026-05-09 02:08 52.49338 166.02234 32916 ft 422 kts 244°
2026-05-09 02:08 52.46332 165.94009 32911 ft 422 kts 244°
2026-05-09 02:09 52.43323 165.85809 32904 ft 417 kts 244°
2026-05-09 02:09 52.40337 165.77693 32915 ft 415 kts 244°
2026-05-09 02:10 52.37351 165.69602 32915 ft 413 kts 244°
2026-05-09 02:10 52.34377 165.61565 32911 ft 412 kts 244°
2026-05-09 02:11 52.31404 165.53559 32917 ft 411 kts 244°
2026-05-09 02:11 52.28458 165.45648 32918 ft 410 kts 244°
2026-05-09 02:12 52.25483 165.37684 32921 ft 411 kts 244°
2026-05-09 02:12 52.22497 165.29716 32924 ft 411 kts 244°
2026-05-09 02:13 52.19505 165.21760 32922 ft 412 kts 244°
2026-05-09 02:13 52.16501 165.13798 32924 ft 412 kts 244°
2026-05-09 02:14 52.13512 165.05899 32915 ft 411 kts 244°
2026-05-09 02:14 52.10521 164.98025 32915 ft 408 kts 244°
2026-05-09 02:15 52.07539 164.90195 32921 ft 406 kts 244°
2026-05-09 02:15 52.04572 164.82424 32928 ft 404 kts 244°
2026-05-09 02:16 52.01607 164.74682 32927 ft 403 kts 244°
2026-05-09 02:16 51.98647 164.66982 32913 ft 401 kts 245°
2026-05-09 02:17 51.95705 164.59351 32915 ft 397 kts 244°
2026-05-09 02:17 51.92800 164.51837 32922 ft 394 kts 244°
2026-05-09 02:18 51.89896 164.44343 32924 ft 392 kts 244°
2026-05-09 02:18 51.86989 164.36864 32927 ft 392 kts 244°
2026-05-09 02:19 51.84075 164.29386 32940 ft 393 kts 244°
2026-05-09 02:19 51.81154 164.21916 32923 ft 393 kts 244°
2026-05-09 02:20 51.78227 164.14454 32926 ft 393 kts 244°
2026-05-09 02:20 51.75315 164.07052 32923 ft 392 kts 244°
2026-05-09 02:21 51.72385 163.99624 32927 ft 392 kts 244°
2026-05-09 02:21 51.69454 163.92214 32924 ft 392 kts 244°
2026-05-09 02:22 51.66516 163.84806 32923 ft 392 kts 244°
2026-05-09 02:22 51.63580 163.77421 32861 ft 391 kts 244°
2026-05-09 02:23 51.60663 163.70119 32913 ft 385 kts 244°
2026-05-09 02:23 51.57770 163.62898 32912 ft 382 kts 244°
2026-05-09 02:24 51.54894 163.55737 32909 ft 381 kts 244°
2026-05-09 02:24 51.52021 163.48598 32929 ft 380 kts 244°
2026-05-09 02:25 51.49161 163.41502 32928 ft 380 kts 243°
2026-05-09 02:25 51.46277 163.34376 32928 ft 380 kts 243°
2026-05-09 02:26 51.43385 163.27250 32926 ft 380 kts 243°
2026-05-09 02:26 51.40493 163.20142 32927 ft 381 kts 243°
2026-05-09 02:27 51.37607 163.13065 32928 ft 381 kts 243°
2026-05-09 02:27 51.34707 163.05976 32925 ft 381 kts 243°
2026-05-09 02:28 51.31802 162.98890 32919 ft 380 kts 243°
2026-05-09 02:28 51.28898 162.91833 32928 ft 379 kts 242°
2026-05-09 02:29 51.25998 162.84801 32923 ft 379 kts 242°
2026-05-09 02:29 51.23114 162.77828 32918 ft 378 kts 243°
2026-05-09 02:30 51.20213 162.70832 32926 ft 378 kts 243°
2026-05-09 02:30 51.17303 162.63831 32913 ft 378 kts 242°
2026-05-09 02:31 51.14391 162.56845 32928 ft 378 kts 242°
2026-05-09 02:31 51.11473 162.49865 32923 ft 379 kts 242°
2026-05-09 02:32 51.08544 162.42879 32928 ft 379 kts 242°
2026-05-09 02:32 51.05613 162.35903 32925 ft 379 kts 242°
2026-05-09 02:33 51.02670 162.28920 32926 ft 380 kts 242°
2026-05-09 02:33 50.99744 162.21992 32917 ft 379 kts 242°
2026-05-09 02:34 50.96800 162.15045 32924 ft 379 kts 242°
2026-05-09 02:34 50.93853 162.08110 32926 ft 379 kts 242°
2026-05-09 02:35 50.91402 162.02352 32927 ft 379 kts 242°
2026-05-09 02:35 50.88442 161.95419 32926 ft 379 kts 242°
2026-05-09 02:36 50.85504 161.88555 32934 ft 378 kts 241°
2026-05-09 02:36 50.82546 161.81656 32916 ft 379 kts 241°
2026-05-09 02:37 50.79570 161.74742 32918 ft 381 kts 241°
2026-05-09 02:37 50.76582 161.67816 32927 ft 381 kts 241°
2026-05-09 02:38 50.73585 161.60888 32923 ft 382 kts 240°
2026-05-09 02:38 50.70585 161.53970 32923 ft 382 kts 240°
2026-05-09 02:39 50.67576 161.47051 32926 ft 382 kts 240°
2026-05-09 02:39 50.64562 161.40139 32923 ft 382 kts 240°
2026-05-09 02:40 50.61547 161.33241 32924 ft 382 kts 240°
2026-05-09 02:40 50.58544 161.26390 32927 ft 382 kts 240°
2026-05-09 02:41 50.55526 161.19521 32922 ft 381 kts 240°
2026-05-09 02:41 50.52499 161.12652 32921 ft 381 kts 240°
2026-05-09 02:42 50.49496 161.05850 32925 ft 381 kts 240°
2026-05-09 02:42 50.46463 160.99003 32908 ft 381 kts 240°
2026-05-09 02:43 50.43429 160.92169 32921 ft 382 kts 240°
2026-05-09 02:43 50.40379 160.85318 32924 ft 384 kts 240°
2026-05-09 02:44 50.37318 160.78460 32922 ft 384 kts 240°
2026-05-09 02:44 50.34310 160.71735 32915 ft 385 kts 239°
2026-05-09 02:45 50.31236 160.64884 32913 ft 384 kts 239°
2026-05-09 02:45 50.28154 160.58034 32914 ft 384 kts 239°
2026-05-09 02:46 50.25080 160.51215 32928 ft 384 kts 239°
2026-05-09 02:46 50.22002 160.44404 32913 ft 383 kts 239°
2026-05-09 02:47 50.18935 160.37641 32914 ft 383 kts 239°
2026-05-09 02:47 50.15836 160.30866 32919 ft 384 kts 238°
2026-05-09 02:48 50.12729 160.24098 32923 ft 384 kts 238°
2026-05-09 02:48 50.09613 160.17324 32870 ft 385 kts 238°
2026-05-09 02:49 50.06491 160.10549 32900 ft 384 kts 238°
2026-05-09 02:49 50.03395 160.03845 32913 ft 384 kts 238°
2026-05-09 02:50 50.00267 159.97087 32902 ft 385 kts 238°
2026-05-09 02:50 49.97131 159.90335 32910 ft 385 kts 238°
2026-05-09 02:51 49.93996 159.83599 32909 ft 385 kts 238°
2026-05-09 02:51 49.90872 159.76906 32901 ft 385 kts 238°
2026-05-09 02:52 49.87732 159.70194 32899 ft 385 kts 238°
2026-05-09 02:52 49.84589 159.63491 32906 ft 385 kts 237°
2026-05-09 02:53 49.81429 159.56768 32904 ft 386 kts 237°
2026-05-09 02:53 49.78254 159.50033 32902 ft 387 kts 237°
2026-05-09 02:54 49.75070 159.43293 32900 ft 388 kts 237°
2026-05-09 02:54 49.71901 159.36601 32902 ft 388 kts 237°
2026-05-09 02:55 49.68677 159.29898 32899 ft 388 kts 237°
2026-05-09 02:55 49.65406 159.23239 32898 ft 389 kts 236°
2026-05-09 02:56 49.62126 159.16580 32896 ft 389 kts 236°
2026-05-09 02:56 49.58848 159.09928 32899 ft 389 kts 236°
2026-05-09 02:57 49.55569 159.03284 32899 ft 389 kts 236°
2026-05-09 02:57 49.52307 158.96686 32898 ft 389 kts 236°
2026-05-09 02:58 49.49026 158.90063 32894 ft 389 kts 236°
2026-05-09 02:58 49.45740 158.83451 32896 ft 389 kts 236°
2026-05-09 02:59 49.42449 158.76846 32892 ft 389 kts 236°
2026-05-09 02:59 49.39154 158.70246 32894 ft 389 kts 236°
2026-05-09 03:00 49.35858 158.63663 32893 ft 389 kts 236°
2026-05-09 03:00 49.32562 158.57094 32857 ft 388 kts 236°
2026-05-09 03:01 49.29271 158.50553 32880 ft 387 kts 236°
2026-05-09 03:01 49.26001 158.44068 32893 ft 386 kts 236°
2026-05-09 03:02 49.22709 158.37555 32890 ft 386 kts 236°
2026-05-09 03:02 49.19416 158.31057 32890 ft 386 kts 236°
2026-05-09 03:03 49.16120 158.24567 32892 ft 386 kts 235°
2026-05-09 03:03 49.12841 158.18128 32886 ft 386 kts 235°
2026-05-09 03:04 49.09535 158.11652 32876 ft 386 kts 235°
2026-05-09 03:04 49.06225 158.05185 32876 ft 386 kts 235°
2026-05-09 03:05 49.02917 157.98737 32873 ft 386 kts 235°
2026-05-09 03:05 48.99601 157.92287 32871 ft 386 kts 235°
2026-05-09 03:06 48.96285 157.85853 32865 ft 386 kts 234°
2026-05-09 03:06 48.92963 157.79423 32826 ft 385 kts 235°
2026-05-09 03:07 48.89655 157.73037 32858 ft 384 kts 235°
2026-05-09 03:07 48.86351 157.66674 32866 ft 383 kts 235°
2026-05-09 03:08 48.83071 157.60371 32870 ft 383 kts 235°
2026-05-09 03:08 48.79770 157.54040 32862 ft 382 kts 234°
2026-05-09 03:09 48.76464 157.47718 32858 ft 382 kts 234°
2026-05-09 03:09 48.73153 157.41400 32853 ft 382 kts 234°
2026-05-09 03:10 48.69841 157.35096 32852 ft 382 kts 234°
2026-05-09 03:10 48.66523 157.28794 32847 ft 383 kts 234°
2026-05-09 03:11 48.63204 157.22503 32852 ft 383 kts 234°
2026-05-09 03:11 48.59881 157.16224 32846 ft 382 kts 234°
2026-05-09 03:12 48.56569 157.09979 32846 ft 382 kts 234°
2026-05-09 03:12 48.53237 157.03709 32824 ft 381 kts 234°
2026-05-09 03:13 48.48258 156.94373 32831 ft 380 kts 233°
2026-05-09 03:13 48.44967 156.88215 32821 ft 380 kts 233°
2026-05-09 03:14 48.41626 156.81980 32825 ft 380 kts 233°
2026-05-09 03:14 48.38328 156.75839 32816 ft 380 kts 233°
2026-05-09 03:15 48.35005 156.69666 32816 ft 380 kts 233°
2026-05-09 03:15 48.31667 156.63480 32811 ft 380 kts 233°
2026-05-09 03:16 48.28331 156.57308 32811 ft 380 kts 232°
2026-05-09 03:16 48.25011 156.51185 32802 ft 380 kts 232°
2026-05-09 03:17 48.21670 156.45036 32798 ft 380 kts 232°
2026-05-09 03:17 48.18323 156.38889 32797 ft 380 kts 232°
2026-05-09 03:18 48.14971 156.32748 32789 ft 379 kts 232°
2026-05-09 03:18 48.11628 156.26635 32793 ft 379 kts 232°
2026-05-09 03:19 48.08284 156.20536 32780 ft 379 kts 232°
2026-05-09 03:19 48.04940 156.14451 32778 ft 378 kts 232°
2026-05-09 03:20 48.01617 156.08417 32775 ft 378 kts 232°
2026-05-09 03:20 47.98271 156.02356 32772 ft 378 kts 232°
2026-05-09 03:21 47.94920 155.96296 32781 ft 378 kts 232°
2026-05-09 03:21 47.91570 155.90254 32762 ft 378 kts 232°
2026-05-09 03:22 47.88218 155.84224 32761 ft 377 kts 231°
2026-05-09 03:22 47.84872 155.78216 32754 ft 377 kts 231°
2026-05-09 03:23 47.81543 155.72253 32754 ft 377 kts 231°
2026-05-09 03:23 47.78171 155.66223 32688 ft 377 kts 231°
2026-05-09 03:24 47.74834 155.60271 32732 ft 377 kts 231°
2026-05-09 03:24 47.71460 155.54268 32739 ft 378 kts 231°
2026-05-09 03:25 47.68654 155.49283 32734 ft 379 kts 231°
2026-05-09 03:25 47.65262 155.43272 32729 ft 380 kts 231°
2026-05-09 03:26 47.61860 155.37255 32743 ft 380 kts 230°
2026-05-09 03:26 47.58459 155.31253 32716 ft 379 kts 230°
2026-05-09 03:27 47.55066 155.25280 32712 ft 378 kts 230°
2026-05-09 03:27 47.51683 155.19336 32704 ft 377 kts 230°
2026-05-09 03:28 47.48324 155.13450 32702 ft 376 kts 230°
2026-05-09 03:28 47.44945 155.07537 32701 ft 376 kts 230°
2026-05-09 03:29 47.41558 155.01625 32689 ft 376 kts 230°
2026-05-09 03:29 47.38175 154.95735 32678 ft 376 kts 230°
2026-05-09 03:30 47.34804 154.89877 32683 ft 377 kts 230°
2026-05-09 03:30 47.31401 154.83977 32671 ft 378 kts 230°
2026-05-09 03:31 47.27984 154.78066 32668 ft 379 kts 230°
2026-05-09 03:31 47.24563 154.72158 32660 ft 379 kts 230°
2026-05-09 03:32 47.21135 154.66254 32657 ft 379 kts 230°
2026-05-09 03:32 47.17709 154.60364 32657 ft 379 kts 230°
2026-05-09 03:33 47.14296 154.54510 32650 ft 379 kts 230°
2026-05-09 03:33 47.10865 154.48637 32673 ft 378 kts 229°
2026-05-09 03:34 47.07435 154.42779 32646 ft 378 kts 229°
2026-05-09 03:34 47.04009 154.36941 32634 ft 377 kts 229°
2026-05-09 03:35 47.00581 154.31113 32583 ft 376 kts 229°
2026-05-09 03:35 46.97175 154.25332 32611 ft 377 kts 229°
2026-05-09 03:36 46.93733 154.19504 32640 ft 379 kts 229°
2026-05-09 03:36 46.90270 154.13651 32617 ft 380 kts 229°
2026-05-09 03:37 46.86820 154.07837 32607 ft 381 kts 229°
2026-05-09 03:37 46.83347 154.01994 32591 ft 380 kts 229°
2026-05-09 03:38 46.79880 153.96174 32590 ft 380 kts 228°
2026-05-09 03:38 46.76405 153.90352 32610 ft 379 kts 228°
2026-05-09 03:39 46.72940 153.84561 32590 ft 378 kts 228°
2026-05-09 03:39 46.69484 153.78794 32566 ft 377 kts 228°
2026-05-09 03:40 46.66023 153.73034 32570 ft 377 kts 228°
2026-05-09 03:40 46.62591 153.67333 32511 ft 377 kts 228°
2026-05-09 03:41 46.59131 153.61596 32576 ft 378 kts 227°
2026-05-09 03:41 46.55655 153.55847 32552 ft 379 kts 227°
2026-05-09 03:42 46.52166 153.50089 32545 ft 380 kts 227°
2026-05-09 03:42 46.48670 153.44331 32527 ft 380 kts 227°
2026-05-09 03:43 46.45170 153.38578 32531 ft 380 kts 227°
2026-05-09 03:43 46.41674 153.32841 32534 ft 379 kts 227°
2026-05-09 03:44 46.38171 153.27109 32511 ft 379 kts 227°
2026-05-09 03:44 46.34691 153.21425 32509 ft 379 kts 227°
2026-05-09 03:45 46.31190 153.15717 32504 ft 379 kts 227°
2026-05-09 03:45 46.27687 153.10018 32493 ft 379 kts 227°
2026-05-09 03:46 46.24180 153.04321 32445 ft 379 kts 226°
2026-05-09 03:46 46.20668 152.98640 32471 ft 379 kts 226°
2026-05-09 03:47 46.17141 152.93010 32478 ft 380 kts 226°
2026-05-09 03:47 46.13571 152.87333 32463 ft 382 kts 226°
2026-05-09 03:48 46.10000 152.81657 32454 ft 382 kts 226°
2026-05-09 03:48 46.06429 152.75988 32454 ft 382 kts 226°
2026-05-09 03:49 46.02850 152.70320 32443 ft 382 kts 226°
2026-05-09 03:49 45.99272 152.64663 32427 ft 382 kts 226°
2026-05-09 03:50 45.95718 152.59056 32424 ft 382 kts 226°
2026-05-09 03:50 45.92136 152.53417 32410 ft 381 kts 226°
2026-05-09 03:51 45.88557 152.47790 32406 ft 381 kts 225°
2026-05-09 03:51 45.84974 152.42174 32396 ft 380 kts 225°
2026-05-09 03:52 45.81398 152.36579 32385 ft 380 kts 225°
2026-05-09 03:52 45.77844 152.31029 32381 ft 379 kts 225°
2026-05-09 03:53 45.74275 152.25465 32400 ft 379 kts 225°
2026-05-09 03:53 45.70694 152.19896 32372 ft 379 kts 225°
2026-05-09 03:54 45.67123 152.14354 32358 ft 378 kts 225°
2026-05-09 03:54 45.63576 152.08861 32362 ft 378 kts 225°
2026-05-09 03:55 45.60009 152.03346 32352 ft 378 kts 225°
2026-05-09 03:55 45.56427 151.97819 32350 ft 378 kts 225°
2026-05-09 03:56 45.52849 151.92311 32345 ft 378 kts 225°
2026-05-09 03:56 45.49267 151.86807 32315 ft 378 kts 225°
2026-05-09 03:57 45.45701 151.81339 32330 ft 380 kts 225°
2026-05-09 03:57 45.42093 151.75817 32334 ft 382 kts 225°
2026-05-09 03:58 45.38452 151.70256 32339 ft 383 kts 224°
2026-05-09 03:58 45.34841 151.64752 32315 ft 383 kts 224°
2026-05-09 03:59 45.31206 151.59223 32307 ft 382 kts 224°
2026-05-09 03:59 45.27574 151.53708 32307 ft 381 kts 224°
2026-05-09 04:00 45.23953 151.48222 32355 ft 380 kts 224°
2026-05-09 04:00 45.20341 151.42760 32329 ft 378 kts 224°
2026-05-09 04:01 45.16760 151.37357 32306 ft 379 kts 224°
2026-05-09 04:01 45.13158 151.31933 32298 ft 376 kts 224°
2026-05-09 04:02 45.09570 151.26541 32295 ft 376 kts 224°
2026-05-09 04:02 45.05969 151.21138 32312 ft 378 kts 224°
2026-05-09 04:03 45.02350 151.15720 32295 ft 379 kts 224°
2026-05-09 04:03 44.98721 151.10297 32291 ft 379 kts 224°
2026-05-09 04:04 44.95100 151.04897 32286 ft 378 kts 224°
2026-05-09 04:04 44.91504 150.99544 32285 ft 377 kts 224°
2026-05-09 04:05 44.87890 150.94174 32290 ft 377 kts 223°
2026-05-09 04:05 44.84269 150.88807 32279 ft 376 kts 223°
2026-05-09 04:06 44.80688 150.83508 32274 ft 374 kts 223°
2026-05-09 04:06 44.77094 150.78200 32276 ft 374 kts 223°
2026-05-09 04:07 44.73501 150.72904 32322 ft 374 kts 223°
2026-05-09 04:07 44.69895 150.67600 32278 ft 375 kts 223°
2026-05-09 04:08 44.66277 150.62288 32266 ft 376 kts 223°
2026-05-09 04:08 44.62691 150.57032 32270 ft 374 kts 223°
2026-05-09 04:09 44.59086 150.51758 32270 ft 373 kts 223°
2026-05-09 04:09 44.55492 150.46509 32317 ft 373 kts 223°
2026-05-09 04:10 44.51897 150.41271 32282 ft 372 kts 223°
2026-05-09 04:10 44.48311 150.36056 32283 ft 371 kts 223°
2026-05-09 04:11 44.44734 150.30864 32285 ft 371 kts 223°
2026-05-09 04:11 44.41152 150.25674 32281 ft 371 kts 223°
2026-05-09 04:12 44.37561 150.20482 32280 ft 371 kts 223°
2026-05-09 04:12 44.33992 150.15331 32286 ft 371 kts 223°
2026-05-09 04:13 44.30395 150.10147 32302 ft 371 kts 223°
2026-05-09 04:13 44.26792 150.04965 32319 ft 371 kts 223°
2026-05-09 04:14 44.23793 150.00659 32359 ft 372 kts 222°
2026-05-09 04:14 44.20170 149.95468 32346 ft 375 kts 222°
2026-05-09 04:15 44.16518 149.90245 32325 ft 377 kts 222°
2026-05-09 04:15 44.12854 149.85014 32345 ft 377 kts 222°
2026-05-09 04:16 44.09211 149.79821 32349 ft 377 kts 222°
2026-05-09 04:16 44.05539 149.74599 32379 ft 379 kts 222°
2026-05-09 04:17 44.01847 149.69357 32285 ft 379 kts 222°
2026-05-09 04:17 43.98166 149.64139 32371 ft 377 kts 222°
2026-05-09 04:18 43.94488 149.58937 32393 ft 377 kts 222°
2026-05-09 04:18 43.90800 149.53732 32393 ft 377 kts 222°
2026-05-09 04:19 43.87119 149.48543 32407 ft 377 kts 222°
2026-05-09 04:19 43.83465 149.43405 32407 ft 376 kts 222°
2026-05-09 04:20 43.79781 149.38233 32408 ft 376 kts 222°
2026-05-09 04:20 43.76105 149.33082 32408 ft 376 kts 222°
2026-05-09 04:21 43.72420 149.27930 32426 ft 378 kts 222°
2026-05-09 04:22 43.66868 149.20182 32424 ft 378 kts 222°
2026-05-09 04:22 43.63170 149.15032 32414 ft 376 kts 222°
2026-05-09 04:23 43.59505 149.09941 32430 ft 376 kts 222°
2026-05-09 04:23 43.55809 149.04814 32454 ft 377 kts 223°
2026-05-09 04:24 43.52104 148.99685 32443 ft 378 kts 223°
2026-05-09 04:24 43.48395 148.94560 32440 ft 378 kts 223°
2026-05-09 04:25 43.44675 148.89428 32445 ft 378 kts 223°
2026-05-09 04:25 43.40983 148.84346 32512 ft 378 kts 223°
2026-05-09 04:26 43.37233 148.79194 32467 ft 382 kts 223°
2026-05-09 04:26 43.33460 148.74017 32467 ft 384 kts 223°
2026-05-09 04:27 43.29675 148.68834 32410 ft 384 kts 223°
2026-05-09 04:27 43.25912 148.63690 32468 ft 380 kts 223°
2026-05-09 04:28 43.22166 148.58583 32486 ft 379 kts 224°
2026-05-09 04:28 43.18424 148.53487 32481 ft 379 kts 224°
2026-05-09 04:29 43.14681 148.48398 32495 ft 379 kts 224°
2026-05-09 04:29 43.10952 148.43339 32494 ft 380 kts 224°
2026-05-09 04:30 43.07185 148.38240 32517 ft 382 kts 224°
2026-05-09 04:30 43.03392 148.33113 32501 ft 384 kts 224°
2026-05-09 04:31 42.99580 148.27969 32514 ft 385 kts 224°
2026-05-09 04:31 42.95785 148.22857 32514 ft 386 kts 224°
2026-05-09 04:32 42.91972 148.17731 32534 ft 381 kts 224°
2026-05-09 04:32 42.88194 148.12663 32511 ft 382 kts 224°
2026-05-09 04:33 42.84403 148.07585 32517 ft 383 kts 224°
2026-05-09 04:33 42.80604 148.02506 32524 ft 383 kts 224°
2026-05-09 04:34 42.76789 147.97414 32539 ft 383 kts 224°
2026-05-09 04:34 42.72958 147.92311 32537 ft 387 kts 224°
2026-05-09 04:35 42.69118 147.87205 32537 ft 389 kts 224°
2026-05-09 04:35 42.65243 147.82062 32535 ft 390 kts 224°
2026-05-09 04:36 42.61347 147.76900 32537 ft 390 kts 224°
2026-05-09 04:36 42.57451 147.71747 32511 ft 390 kts 224°
2026-05-09 04:37 42.53583 147.66642 32536 ft 386 kts 224°
2026-05-09 04:37 42.49765 147.61611 32545 ft 383 kts 224°
2026-05-09 04:38 42.45945 147.56586 32548 ft 381 kts 224°
2026-05-09 04:38 42.42118 147.51558 32570 ft 388 kts 224°
2026-05-09 04:39 42.38196 147.46419 32548 ft 393 kts 224°
2026-05-09 04:39 42.34280 147.41288 32552 ft 391 kts 224°
2026-05-09 04:40 42.30376 147.36178 32550 ft 390 kts 224°
2026-05-09 04:40 42.26483 147.31090 32554 ft 389 kts 224°
2026-05-09 04:41 42.22592 147.26014 32560 ft 389 kts 224°
2026-05-09 04:41 42.18725 147.20978 32561 ft 389 kts 224°
2026-05-09 04:42 42.14824 147.15907 32563 ft 389 kts 224°
2026-05-09 04:42 42.10898 147.10815 32610 ft 397 kts 224°
2026-05-09 04:43 42.06845 147.05564 32574 ft 407 kts 224°
2026-05-09 04:43 42.02804 147.00340 32563 ft 404 kts 224°
2026-05-09 04:44 41.98755 146.95114 32567 ft 402 kts 224°
2026-05-09 04:44 41.94709 146.89901 32570 ft 403 kts 225°
2026-05-09 04:45 41.90637 146.84666 32571 ft 406 kts 225°
2026-05-09 04:45 41.86572 146.79446 32566 ft 405 kts 225°
2026-05-09 04:46 41.82503 146.74228 32570 ft 403 kts 225°
2026-05-09 04:46 41.78454 146.69043 32571 ft 403 kts 225°
2026-05-09 04:47 41.74396 146.63855 32580 ft 403 kts 225°
2026-05-09 04:47 41.70332 146.58668 32580 ft 404 kts 225°
2026-05-09 04:48 41.66261 146.53482 32579 ft 404 kts 225°
2026-05-09 04:48 41.62200 146.48319 32589 ft 406 kts 225°
2026-05-09 04:49 41.58088 146.43100 32585 ft 408 kts 225°
2026-05-09 04:49 41.53969 146.37884 32590 ft 409 kts 225°
2026-05-09 04:50 41.49853 146.32680 32598 ft 406 kts 225°
2026-05-09 04:50 41.45759 146.27514 32588 ft 404 kts 225°
2026-05-09 04:51 41.41672 146.22366 32592 ft 403 kts 225°
2026-05-09 04:51 41.37604 146.17250 32590 ft 402 kts 225°
2026-05-09 04:52 41.33556 146.12168 32615 ft 402 kts 225°
2026-05-09 04:52 41.29475 146.07056 32601 ft 403 kts 225°
2026-05-09 04:53 41.25387 146.01942 32594 ft 404 kts 225°
2026-05-09 04:53 41.21289 145.96826 32596 ft 404 kts 225°
2026-05-09 04:54 41.17188 145.91714 32602 ft 403 kts 225°
2026-05-09 04:54 41.13106 145.86638 32596 ft 401 kts 225°
2026-05-09 04:55 41.09046 145.81597 32604 ft 398 kts 225°
2026-05-09 04:55 41.05006 145.76590 32606 ft 397 kts 225°
2026-05-09 04:56 41.00965 145.71588 32614 ft 398 kts 225°
2026-05-09 04:56 40.96900 145.66566 32612 ft 400 kts 225°
2026-05-09 04:57 40.92840 145.61560 32616 ft 402 kts 225°
2026-05-09 04:57 40.88734 145.56507 32619 ft 403 kts 225°
2026-05-09 04:58 40.84617 145.51448 32570 ft 405 kts 225°
2026-05-09 04:58 40.80531 145.46439 32847 ft 397 kts 225°
2026-05-09 04:58 40.78528 145.43986 33024 ft 399 kts 225°
2026-05-09 04:59 40.76494 145.41496 33211 ft 400 kts 225°
2026-05-09 04:59 40.74441 145.38985 33398 ft 402 kts 225°
2026-05-09 04:59 40.72391 145.36480 33577 ft 403 kts 225°
2026-05-09 04:59 40.70331 145.33964 33735 ft 404 kts 225°
2026-05-09 05:00 40.68260 145.31439 33895 ft 405 kts 225°
2026-05-09 05:00 40.66192 145.28921 34050 ft 405 kts 225°
2026-05-09 05:00 40.64120 145.26397 34211 ft 406 kts 225°
2026-05-09 05:00 40.62046 145.23874 34365 ft 406 kts 225°
2026-05-09 05:01 40.60007 145.21396 34521 ft 406 kts 225°
2026-05-09 05:01 40.57929 145.18873 34679 ft 407 kts 225°
2026-05-09 05:01 40.55842 145.16342 34841 ft 407 kts 225°
2026-05-09 05:01 40.53754 145.13811 34996 ft 407 kts 225°
2026-05-09 05:02 40.51669 145.11285 35156 ft 407 kts 225°
2026-05-09 05:02 40.49585 145.08763 35299 ft 407 kts 225°
2026-05-09 05:02 40.47530 145.06278 35469 ft 406 kts 225°
2026-05-09 05:02 40.45450 145.03765 35622 ft 406 kts 225°
2026-05-09 05:03 40.43368 145.01253 35784 ft 405 kts 225°
2026-05-09 05:03 40.41292 144.98750 35942 ft 405 kts 225°
2026-05-09 05:03 40.39215 144.96253 36124 ft 404 kts 225°
2026-05-09 05:03 40.37137 144.93756 36293 ft 404 kts 225°
2026-05-09 05:04 40.35085 144.91293 36459 ft 404 kts 225°
2026-05-09 05:04 40.30927 144.86304 36619 ft 407 kts 225°
2026-05-09 05:05 40.26722 144.81266 36675 ft 410 kts 226°
2026-05-09 05:05 40.23224 144.77084 36680 ft 410 kts 225°
2026-05-09 05:06 40.18319 144.71229 36682 ft 410 kts 225°
2026-05-09 05:06 40.14798 144.67034 36683 ft 407 kts 226°
2026-05-09 05:07 40.10622 144.62066 36691 ft 404 kts 226°
2026-05-09 05:07 40.06468 144.57132 36693 ft 403 kts 226°
2026-05-09 05:08 40.02354 144.52254 36700 ft 401 kts 226°
2026-05-09 05:08 39.98206 144.47343 36699 ft 401 kts 226°
2026-05-09 05:09 39.94072 144.42456 36713 ft 402 kts 226°
2026-05-09 05:09 39.89946 144.37588 36714 ft 403 kts 226°
2026-05-09 05:10 39.85786 144.32689 36716 ft 404 kts 226°
2026-05-09 05:10 39.81610 144.27780 36714 ft 403 kts 226°
2026-05-09 05:11 39.77445 144.22892 36723 ft 403 kts 226°
2026-05-09 05:11 39.73281 144.18014 36728 ft 403 kts 226°
2026-05-09 05:12 39.69114 144.13140 36735 ft 402 kts 226°
2026-05-09 05:12 39.64974 144.08305 36735 ft 402 kts 226°
2026-05-09 05:13 39.60813 144.03454 36742 ft 402 kts 226°
2026-05-09 05:13 39.56650 143.98608 36745 ft 402 kts 226°
2026-05-09 05:14 39.52483 143.93768 36754 ft 401 kts 226°
2026-05-09 05:14 39.48348 143.88971 36742 ft 400 kts 226°
2026-05-09 05:15 39.44205 143.84175 36754 ft 399 kts 226°
2026-05-09 05:15 39.40067 143.79391 36752 ft 399 kts 226°
2026-05-09 05:16 39.35934 143.74620 36762 ft 398 kts 226°
2026-05-09 05:16 39.31801 143.69857 36767 ft 398 kts 226°
2026-05-09 05:17 39.27668 143.65104 36765 ft 398 kts 226°
2026-05-09 05:17 39.23524 143.60343 36770 ft 398 kts 226°
2026-05-09 05:18 39.19382 143.55594 36775 ft 398 kts 226°
2026-05-09 05:18 39.15272 143.50891 36759 ft 396 kts 226°
2026-05-09 05:19 39.11159 143.46190 36768 ft 394 kts 226°
2026-05-09 05:19 39.07061 143.41514 36786 ft 393 kts 226°
2026-05-09 05:20 39.02975 143.36858 36793 ft 392 kts 226°
2026-05-09 05:20 38.98892 143.32213 36787 ft 391 kts 226°
2026-05-09 05:21 38.94809 143.27575 36795 ft 391 kts 226°
2026-05-09 05:21 38.90737 143.22934 36817 ft 391 kts 228°
2026-05-09 05:22 38.86928 143.18018 36800 ft 390 kts 230°
2026-05-09 05:22 38.83128 143.13032 36806 ft 391 kts 230°
2026-05-09 05:23 38.79315 143.08043 36820 ft 392 kts 230°
2026-05-09 05:23 38.75493 143.03056 36803 ft 392 kts 230°
2026-05-09 05:24 38.71658 142.98062 36825 ft 392 kts 230°
2026-05-09 05:24 38.67852 142.93113 36823 ft 392 kts 230°
2026-05-09 05:25 38.64028 142.88147 36837 ft 391 kts 230°
2026-05-09 05:25 38.58279 142.80701 36840 ft 391 kts 230°
2026-05-09 05:26 38.54485 142.75795 36827 ft 390 kts 230°
2026-05-09 05:26 38.50666 142.70865 36808 ft 390 kts 230°
2026-05-09 05:27 38.46863 142.65964 36837 ft 387 kts 230°
2026-05-09 05:27 38.43076 142.61089 36844 ft 386 kts 230°
2026-05-09 05:28 38.39297 142.56232 36854 ft 385 kts 230°
2026-05-09 05:28 38.35522 142.51386 36863 ft 385 kts 230°
2026-05-09 05:29 38.31737 142.46537 36868 ft 386 kts 230°
2026-05-09 05:29 38.27963 142.41638 36866 ft 388 kts 231°
2026-05-09 05:30 38.24211 142.36748 36873 ft 389 kts 231°
2026-05-09 05:30 38.20423 142.31823 36879 ft 390 kts 230°
2026-05-09 05:31 38.16622 142.26893 36875 ft 390 kts 231°
2026-05-09 05:31 38.12817 142.21969 36842 ft 389 kts 231°
2026-05-09 05:32 38.09040 142.17089 36875 ft 386 kts 231°
2026-05-09 05:32 38.05284 142.12238 36885 ft 384 kts 231°
2026-05-09 05:33 38.01544 142.07418 36885 ft 383 kts 231°
2026-05-09 05:33 37.97832 142.02643 36881 ft 381 kts 231°
2026-05-09 05:34 37.94105 141.97849 36891 ft 381 kts 231°
2026-05-09 05:34 37.90381 141.93063 36897 ft 381 kts 231°
2026-05-09 05:35 37.86649 141.88274 36900 ft 382 kts 231°
2026-05-09 05:35 37.82908 141.83481 36900 ft 383 kts 231°
2026-05-09 05:36 37.79180 141.78712 36907 ft 384 kts 231°
2026-05-09 05:36 37.75396 141.73881 36896 ft 383 kts 231°
2026-05-09 05:37 37.71670 141.69130 36903 ft 382 kts 231°
2026-05-09 05:37 37.67931 141.64369 36904 ft 381 kts 231°
2026-05-09 05:38 37.64186 141.59608 36908 ft 381 kts 231°
2026-05-09 05:38 37.60476 141.54898 36912 ft 380 kts 231°
2026-05-09 05:39 37.56747 141.50172 36915 ft 380 kts 231°
2026-05-09 05:39 37.53019 141.45453 36914 ft 379 kts 231°
2026-05-09 05:40 37.49293 141.40743 36916 ft 379 kts 231°
2026-05-09 05:40 37.45563 141.36036 36921 ft 380 kts 231°
2026-05-09 05:41 37.41827 141.31330 36921 ft 379 kts 231°
2026-05-09 05:41 37.38107 141.26650 36917 ft 377 kts 231°
2026-05-09 05:42 37.34398 141.21991 36920 ft 376 kts 231°
2026-05-09 05:42 37.30699 141.17350 36926 ft 375 kts 231°
2026-05-09 05:43 37.27022 141.12743 36929 ft 375 kts 231°
2026-05-09 05:43 37.23327 141.08120 36921 ft 374 kts 231°
2026-05-09 05:44 37.19640 141.03513 36930 ft 373 kts 231°
2026-05-09 05:44 37.15981 140.98946 36932 ft 373 kts 232°
2026-05-09 05:45 37.12612 140.94064 36931 ft 369 kts 236°
2026-05-09 05:45 37.09395 140.89037 36943 ft 370 kts 236°
2026-05-09 05:46 37.06161 140.84004 36938 ft 371 kts 236°
2026-05-09 05:46 37.02907 140.78950 36945 ft 374 kts 236°
2026-05-09 05:47 36.99620 140.73856 36952 ft 374 kts 235°
2026-05-09 05:47 36.96359 140.68822 36917 ft 371 kts 236°
2026-05-09 05:48 36.93156 140.63861 36932 ft 368 kts 236°
2026-05-09 05:48 36.89928 140.58871 36954 ft 370 kts 236°
2026-05-09 05:49 36.86672 140.53851 36957 ft 373 kts 236°
2026-05-09 05:49 36.83393 140.48804 36957 ft 375 kts 235°
2026-05-09 05:50 36.80108 140.43756 36958 ft 377 kts 235°
2026-05-09 05:50 36.76793 140.38668 36958 ft 377 kts 236°
2026-05-09 05:51 36.73587 140.33490 36959 ft 374 kts 239°
2026-05-09 05:51 36.70766 140.28034 36968 ft 373 kts 241°
2026-05-09 05:52 36.67946 140.22647 36958 ft 374 kts 240°
2026-05-09 05:52 36.65080 140.17239 36945 ft 373 kts 240°
2026-05-09 05:53 36.62696 140.12724 36954 ft 372 kts 240°
2026-05-09 05:53 36.59883 140.07381 36956 ft 370 kts 240°
2026-05-09 05:54 36.57055 140.02028 36954 ft 370 kts 240°
2026-05-09 05:54 36.54220 139.96688 36960 ft 369 kts 240°
2026-05-09 05:55 36.51386 139.91352 36961 ft 369 kts 240°
2026-05-09 05:55 36.48553 139.86029 36968 ft 369 kts 240°
2026-05-09 05:56 36.45549 139.80829 36968 ft 371 kts 238°
2026-05-09 05:56 36.42504 139.75705 36972 ft 371 kts 238°
2026-05-09 05:57 36.39474 139.70545 36935 ft 369 kts 238°
2026-05-09 05:57 36.36462 139.65386 36973 ft 369 kts 238°
2026-05-09 05:58 36.33448 139.60210 36975 ft 370 kts 238°
2026-05-09 05:58 36.30423 139.55027 36977 ft 371 kts 238°
2026-05-09 05:59 36.27393 139.49843 36982 ft 371 kts 238°
2026-05-09 05:59 36.24369 139.44677 36986 ft 372 kts 238°
2026-05-09 06:00 36.21334 139.39499 36985 ft 371 kts 238°
2026-05-09 06:00 36.18304 139.34338 36986 ft 370 kts 239°
2026-05-09 06:01 36.15642 139.28938 36981 ft 366 kts 244°
2026-05-09 06:01 36.13455 139.23254 36980 ft 366 kts 246°
2026-05-09 06:02 36.11333 139.17525 36981 ft 366 kts 246°
2026-05-09 06:02 36.09212 139.11810 36974 ft 368 kts 246°
2026-05-09 06:03 36.07062 139.06067 36991 ft 368 kts 246°
2026-05-09 06:03 36.04916 139.00343 36983 ft 367 kts 246°
2026-05-09 06:04 36.02778 138.94624 36980 ft 365 kts 246°
2026-05-09 06:04 36.00648 138.88943 36988 ft 364 kts 246°
2026-05-09 06:05 35.98503 138.83239 36950 ft 367 kts 245°
2026-05-09 06:05 35.96354 138.77566 36992 ft 366 kts 246°
2026-05-09 06:06 35.94209 138.71893 36989 ft 363 kts 246°
2026-05-09 06:06 35.92083 138.66259 36944 ft 362 kts 246°
2026-05-09 06:07 35.89960 138.60655 36979 ft 358 kts 247°
2026-05-09 06:07 35.87830 138.55055 36980 ft 361 kts 246°
2026-05-09 06:08 35.85697 138.49468 36986 ft 363 kts 246°
2026-05-09 06:08 35.83544 138.43819 36979 ft 365 kts 246°
2026-05-09 06:09 35.81371 138.38148 36985 ft 365 kts 246°
2026-05-09 06:09 35.79215 138.32523 36988 ft 365 kts 246°
2026-05-09 06:10 35.77048 138.26889 36965 ft 360 kts 245°
2026-05-09 06:10 35.74904 138.21402 36979 ft 355 kts 245°
2026-05-09 06:11 35.72821 138.15882 36971 ft 354 kts 246°
2026-05-09 06:11 35.70715 138.10338 36991 ft 361 kts 246°
2026-05-09 06:12 35.68563 138.04749 36965 ft 364 kts 245°
2026-05-09 06:12 35.66392 137.99092 36983 ft 367 kts 246°
2026-05-09 06:13 35.64318 137.93339 36997 ft 372 kts 246°
2026-05-09 06:13 35.62222 137.87539 36997 ft 367 kts 246°
2026-05-09 06:14 35.60160 137.81867 37018 ft 361 kts 246°
2026-05-09 06:14 35.58086 137.76235 37024 ft 361 kts 246°
2026-05-09 06:15 35.55962 137.70661 37010 ft 363 kts 246°
2026-05-09 06:15 35.53821 137.65024 37006 ft 365 kts 246°
2026-05-09 06:16 35.51666 137.59345 37027 ft 368 kts 245°
2026-05-09 06:16 35.49499 137.53624 37021 ft 371 kts 246°
2026-05-09 06:17 35.46564 137.48414 37007 ft 376 kts 232°
2026-05-09 06:17 35.42846 137.43920 37014 ft 376 kts 226°
2026-05-09 06:18 35.38296 137.40569 37019 ft 383 kts 217°
2026-05-09 06:18 35.33631 137.37529 37014 ft 381 kts 218°
2026-05-09 06:19 35.28985 137.34457 37010 ft 379 kts 218°
2026-05-09 06:19 35.24350 137.31365 37023 ft 379 kts 218°
2026-05-09 06:20 35.19708 137.28268 37035 ft 381 kts 218°
2026-05-09 06:20 35.15050 137.25168 37019 ft 380 kts 218°
2026-05-09 06:21 35.10387 137.22076 37027 ft 381 kts 218°
2026-05-09 06:21 35.05719 137.18987 37026 ft 382 kts 218°
2026-05-09 06:22 35.01069 137.15914 37030 ft 382 kts 218°
2026-05-09 06:22 34.96379 137.12819 37029 ft 382 kts 218°
2026-05-09 06:23 34.91705 137.09736 37009 ft 381 kts 217°
2026-05-09 06:23 34.87034 137.06660 37034 ft 381 kts 217°
2026-05-09 06:24 34.82378 137.03597 37025 ft 380 kts 217°
2026-05-09 06:24 34.77721 137.00537 37035 ft 380 kts 217°
2026-05-09 06:25 34.73219 136.97259 37018 ft 371 kts 224°
2026-05-09 06:25 34.69321 136.93256 37041 ft 370 kts 228°
2026-05-09 06:26 34.65821 136.88672 37047 ft 371 kts 235°
2026-05-09 06:26 34.62628 136.83708 37044 ft 374 kts 235°
2026-05-09 06:27 34.59425 136.78723 37031 ft 375 kts 235°
2026-05-09 06:27 34.56204 136.73740 37034 ft 375 kts 234°
2026-05-09 06:28 34.52975 136.68764 37037 ft 375 kts 234°
2026-05-09 06:28 34.49753 136.63810 37054 ft 373 kts 234°
2026-05-09 06:29 34.46539 136.58877 37045 ft 372 kts 234°
2026-05-09 06:29 34.43349 136.53989 37035 ft 371 kts 234°
2026-05-09 06:30 34.40144 136.49081 37046 ft 371 kts 234°
2026-05-09 06:30 34.36939 136.44184 37057 ft 371 kts 234°
2026-05-09 06:31 34.33731 136.39286 37026 ft 371 kts 234°
2026-05-09 06:31 34.30516 136.34385 37068 ft 371 kts 234°
2026-05-09 06:32 34.27279 136.29498 37045 ft 372 kts 234°
2026-05-09 06:33 34.22469 136.22170 37045 ft 372 kts 234°
2026-05-09 06:33 34.19258 136.17288 37077 ft 370 kts 234°
2026-05-09 06:34 34.14474 136.09845 37025 ft 380 kts 233°
2026-05-09 06:34 34.11132 136.04907 37064 ft 380 kts 234°
2026-05-09 06:35 34.07837 135.99979 37059 ft 379 kts 234°
2026-05-09 06:35 34.04535 135.95026 37056 ft 378 kts 233°
2026-05-09 06:36 34.01254 135.90100 37061 ft 375 kts 236°
2026-05-09 06:36 33.97999 135.85177 37066 ft 375 kts 234°
2026-05-09 06:37 33.94725 135.80278 37087 ft 374 kts 234°
2026-05-09 06:37 33.91496 135.75427 37039 ft 373 kts 233°
2026-05-09 06:38 33.88243 135.70575 37061 ft 374 kts 233°
2026-05-09 06:38 33.84978 135.65681 37059 ft 375 kts 233°
2026-05-09 06:39 33.81697 135.60770 37069 ft 378 kts 234°
2026-05-09 06:39 33.78388 135.55837 37048 ft 379 kts 234°
2026-05-09 06:40 33.75066 135.50895 37065 ft 380 kts 233°
2026-05-09 06:40 33.71741 135.45948 37049 ft 380 kts 234°
2026-05-09 06:41 33.68433 135.41033 37049 ft 380 kts 233°
2026-05-09 06:41 33.65106 135.36100 37040 ft 380 kts 234°
2026-05-09 06:42 33.61782 135.31176 37041 ft 379 kts 234°
2026-05-09 06:42 33.58458 135.26259 37048 ft 379 kts 234°
2026-05-09 06:43 33.55132 135.21345 37061 ft 379 kts 233°
2026-05-09 06:43 33.51822 135.16461 37068 ft 379 kts 233°
2026-05-09 06:44 33.49052 135.12379 37076 ft 379 kts 233°
2026-05-09 06:44 33.45721 135.07476 37056 ft 379 kts 233°
2026-05-09 06:45 33.42393 135.02582 37083 ft 380 kts 233°
2026-05-09 06:45 33.39045 134.97662 37104 ft 381 kts 234°
2026-05-09 06:46 33.35702 134.92727 37093 ft 382 kts 234°
2026-05-09 06:46 33.32346 134.87774 37096 ft 383 kts 234°
2026-05-09 06:47 33.29004 134.82851 37086 ft 383 kts 233°
2026-05-09 06:47 33.25635 134.77896 37112 ft 384 kts 233°
2026-05-09 06:48 33.22258 134.72935 37093 ft 385 kts 233°
2026-05-09 06:48 33.18950 134.67921 37053 ft 383 kts 238°
2026-05-09 06:49 33.16375 134.62355 37090 ft 383 kts 243°
2026-05-09 06:49 33.14340 134.56490 37108 ft 385 kts 251°
2026-05-09 06:50 33.12843 134.50342 37110 ft 386 kts 251°
2026-05-09 06:50 33.11361 134.44228 37108 ft 386 kts 251°
2026-05-09 06:51 33.09849 134.38086 37097 ft 386 kts 251°
2026-05-09 06:51 33.08324 134.31940 37102 ft 386 kts 251°
2026-05-09 06:52 33.06796 134.25794 37108 ft 387 kts 251°
2026-05-09 06:52 33.05272 134.19617 37111 ft 388 kts 251°
2026-05-09 06:53 33.03789 134.13470 37085 ft 388 kts 251°
2026-05-09 06:53 33.02291 134.07273 37098 ft 388 kts 251°
2026-05-09 06:54 33.00789 134.01084 37122 ft 389 kts 251°
2026-05-09 06:54 32.99279 133.94887 37104 ft 389 kts 251°
2026-05-09 06:55 32.97768 133.88695 37106 ft 389 kts 251°
2026-05-09 06:55 32.96254 133.82509 37118 ft 389 kts 251°
2026-05-09 06:56 32.94735 133.76319 37107 ft 390 kts 251°
2026-05-09 06:56 32.93220 133.70159 37103 ft 390 kts 251°
2026-05-09 06:57 32.91691 133.63951 37099 ft 391 kts 251°
2026-05-09 06:57 32.90155 133.57734 37061 ft 391 kts 251°
2026-05-09 06:58 32.88611 133.51513 37095 ft 391 kts 251°
2026-05-09 06:58 32.87073 133.45344 37106 ft 392 kts 251°
2026-05-09 06:59 32.85519 133.39122 37111 ft 393 kts 251°
2026-05-09 06:59 32.83959 133.32883 37107 ft 394 kts 251°
2026-05-09 07:00 32.82393 133.26641 37089 ft 393 kts 251°
2026-05-09 07:00 32.80827 133.20405 37115 ft 394 kts 251°
2026-05-09 07:01 32.79253 133.14154 37101 ft 395 kts 251°
2026-05-09 07:01 32.77673 133.07890 37101 ft 396 kts 251°
2026-05-09 07:02 32.76028 133.01640 37120 ft 395 kts 248°
2026-05-09 07:02 32.73778 132.95711 37091 ft 397 kts 242°
2026-05-09 07:03 32.71101 132.89979 37106 ft 397 kts 242°
2026-05-09 07:03 32.68413 132.84246 37107 ft 397 kts 242°
2026-05-09 07:04 32.65732 132.78521 37105 ft 397 kts 242°
2026-05-09 07:04 32.63048 132.72784 37107 ft 397 kts 242°
2026-05-09 07:05 32.60370 132.67064 37108 ft 396 kts 242°
2026-05-09 07:05 32.57708 132.61387 37127 ft 396 kts 242°
2026-05-09 07:06 32.55029 132.55678 37070 ft 396 kts 242°
2026-05-09 07:06 32.52346 132.49975 37091 ft 397 kts 242°
2026-05-09 07:07 32.49648 132.44246 37119 ft 398 kts 242°
2026-05-09 07:07 32.46941 132.38509 37116 ft 399 kts 242°
2026-05-09 07:08 32.44232 132.32774 37070 ft 399 kts 242°
2026-05-09 07:08 32.41535 132.27075 37102 ft 400 kts 242°
2026-05-09 07:09 32.38812 132.21329 37109 ft 400 kts 242°
2026-05-09 07:09 32.36079 132.15572 37102 ft 401 kts 242°
2026-05-09 07:10 32.33344 132.09819 37068 ft 401 kts 242°
2026-05-09 07:10 32.30606 132.04071 37101 ft 401 kts 242°
2026-05-09 07:11 32.27881 131.98356 37129 ft 401 kts 242°
2026-05-09 07:11 32.25131 131.92598 37110 ft 402 kts 242°
2026-05-09 07:12 32.22373 131.86834 37059 ft 402 kts 242°
2026-05-09 07:12 32.19614 131.81077 37094 ft 403 kts 242°
2026-05-09 07:13 32.16869 131.75354 37119 ft 404 kts 242°
2026-05-09 07:13 32.14093 131.69578 37109 ft 405 kts 242°
2026-05-09 07:14 32.11307 131.63792 37078 ft 405 kts 242°
2026-05-09 07:14 32.08512 131.57996 37099 ft 406 kts 242°
2026-05-09 07:15 32.05736 131.52246 37114 ft 406 kts 242°
2026-05-09 07:15 32.02933 131.46449 37105 ft 406 kts 242°
2026-05-09 07:16 32.00131 131.40664 37051 ft 406 kts 242°
2026-05-09 07:16 31.97329 131.34888 37094 ft 406 kts 242°
2026-05-09 07:17 31.94517 131.29101 37103 ft 407 kts 242°
2026-05-09 07:17 31.91705 131.23322 37112 ft 407 kts 242°
2026-05-09 07:18 31.88883 131.17533 37083 ft 407 kts 242°
2026-05-09 07:18 31.86078 131.11786 37102 ft 408 kts 242°
2026-05-09 07:19 31.83251 131.06004 37104 ft 408 kts 242°
2026-05-09 07:19 31.80415 131.00211 37104 ft 408 kts 242°
2026-05-09 07:20 31.77577 130.94424 37105 ft 409 kts 242°
2026-05-09 07:20 31.74732 130.88630 37109 ft 409 kts 242°
2026-05-09 07:21 31.71876 130.82825 37107 ft 410 kts 242°
2026-05-09 07:21 31.69034 130.77055 37098 ft 411 kts 242°
2026-05-09 07:22 31.66173 130.71257 37105 ft 411 kts 242°
2026-05-09 07:22 31.63305 130.65454 37100 ft 410 kts 242°
2026-05-09 07:23 31.60435 130.59654 37110 ft 410 kts 242°
2026-05-09 07:23 31.57562 130.53857 37110 ft 411 kts 242°
2026-05-09 07:24 31.54687 130.48066 37109 ft 411 kts 242°
2026-05-09 07:24 31.51805 130.42268 37116 ft 412 kts 242°
2026-05-09 07:25 31.48928 130.36491 37119 ft 413 kts 242°
2026-05-09 07:25 31.46027 130.30673 37117 ft 414 kts 242°
2026-05-09 07:26 31.43119 130.24851 37134 ft 414 kts 242°
2026-05-09 07:26 31.40208 130.19029 37112 ft 414 kts 242°
2026-05-09 07:27 31.37293 130.13211 37112 ft 415 kts 242°
2026-05-09 07:27 31.34373 130.07389 37116 ft 415 kts 242°
2026-05-09 07:28 31.31454 130.01576 37136 ft 415 kts 242°
2026-05-09 07:28 31.28438 129.95812 37100 ft 416 kts 238°
2026-05-09 07:29 31.24887 129.90449 37121 ft 418 kts 235°
2026-05-09 07:29 31.21317 129.85138 37123 ft 419 kts 235°
2026-05-09 07:30 31.17726 129.79776 37136 ft 419 kts 235°
2026-05-09 07:30 31.14123 129.74395 37106 ft 420 kts 235°
2026-05-09 07:31 31.10522 129.69023 37114 ft 421 kts 235°
2026-05-09 07:31 31.06909 129.63639 37118 ft 421 kts 235°
2026-05-09 07:32 31.03306 129.58280 37123 ft 422 kts 235°
2026-05-09 07:32 30.99681 129.52895 37123 ft 422 kts 235°
2026-05-09 07:33 30.94229 129.44811 37121 ft 423 kts 235°
2026-05-09 07:34 30.90584 129.39415 37123 ft 423 kts 235°
2026-05-09 07:34 30.86937 129.34023 37108 ft 423 kts 235°
2026-05-09 07:35 30.83908 129.29549 37119 ft 424 kts 235°
2026-05-09 07:35 30.79653 129.23273 37119 ft 424 kts 235°
2026-05-09 07:36 30.76589 129.18750 37116 ft 424 kts 236°
2026-05-09 07:36 30.73020 129.13333 37081 ft 424 kts 236°
2026-05-09 07:37 30.69451 129.07877 37111 ft 424 kts 236°
2026-05-09 07:37 30.65864 129.02412 37116 ft 425 kts 236°
2026-05-09 07:38 30.62271 128.96956 37113 ft 425 kts 236°
2026-05-09 07:38 30.58672 128.91504 37086 ft 425 kts 236°
2026-05-09 07:39 30.55092 128.86087 37119 ft 425 kts 236°
2026-05-09 07:39 30.51474 128.80621 37114 ft 426 kts 236°
2026-05-09 07:40 30.47855 128.75163 37114 ft 427 kts 236°
2026-05-09 07:40 30.44237 128.69711 37083 ft 427 kts 236°
2026-05-09 07:41 30.40619 128.64268 37125 ft 426 kts 237°
2026-05-09 07:41 30.37018 128.58856 37117 ft 427 kts 237°
2026-05-09 07:42 30.33383 128.53401 37116 ft 427 kts 237°
2026-05-09 07:42 30.29749 128.47956 37083 ft 427 kts 236°
2026-05-09 07:43 30.26117 128.42521 37111 ft 427 kts 236°
2026-05-09 07:43 30.22482 128.37090 37117 ft 426 kts 236°
2026-05-09 07:44 30.18871 128.31699 37113 ft 426 kts 236°
2026-05-09 07:44 30.15236 128.26282 37115 ft 426 kts 236°
2026-05-09 07:45 30.11589 128.20854 37116 ft 426 kts 236°
2026-05-09 07:45 30.07947 128.15439 37124 ft 427 kts 237°
2026-05-09 07:46 30.04298 128.10023 37118 ft 427 kts 237°
2026-05-09 07:46 30.00670 128.04645 37074 ft 427 kts 237°
2026-05-09 07:47 29.97021 127.99243 37098 ft 427 kts 237°
2026-05-09 07:47 29.93369 127.93841 37118 ft 427 kts 237°
2026-05-09 07:48 29.89714 127.88442 37117 ft 427 kts 237°
2026-05-09 07:48 29.86074 127.83080 37115 ft 427 kts 236°
2026-05-09 07:49 29.82224 127.77830 37111 ft 429 kts 234°
2026-05-09 07:49 29.78296 127.72653 37110 ft 429 kts 234°
2026-05-09 07:50 29.74390 127.67461 37124 ft 429 kts 234°
2026-05-09 07:50 29.70496 127.62253 37124 ft 429 kts 235°
2026-05-09 07:51 29.66605 127.57050 37104 ft 428 kts 235°
2026-05-09 07:51 29.62719 127.51860 37115 ft 428 kts 235°
2026-05-09 07:52 29.58835 127.46683 37131 ft 428 kts 235°
2026-05-09 07:52 29.55075 127.41393 37119 ft 426 kts 237°
2026-05-09 07:53 29.51421 127.36026 37108 ft 426 kts 238°
2026-05-09 07:53 29.47780 127.30705 37112 ft 426 kts 237°
2026-05-09 07:54 29.44096 127.25365 37115 ft 426 kts 237°
2026-05-09 07:54 29.40403 127.20034 37120 ft 426 kts 237°
2026-05-09 07:55 29.36730 127.14742 37103 ft 426 kts 238°
2026-05-09 07:55 29.33039 127.09430 37110 ft 426 kts 238°
2026-05-09 07:56 29.29350 127.04126 37115 ft 425 kts 238°
2026-05-09 07:56 29.25653 126.98818 37127 ft 425 kts 238°
2026-05-09 07:57 29.21959 126.93520 37096 ft 426 kts 238°
2026-05-09 07:57 29.18264 126.88228 37115 ft 425 kts 238°
2026-05-09 07:58 29.14590 126.82974 37117 ft 425 kts 238°
2026-05-09 07:58 29.10889 126.77686 37114 ft 425 kts 238°
2026-05-09 07:59 29.07184 126.72401 37121 ft 425 kts 238°
2026-05-09 07:59 29.03484 126.67129 37109 ft 425 kts 238°
2026-05-09 08:00 28.99787 126.61864 37115 ft 425 kts 238°
2026-05-09 08:00 28.96094 126.56633 37117 ft 425 kts 238°
2026-05-09 08:01 28.92276 126.51464 37122 ft 426 kts 237°
2026-05-09 08:01 28.88423 126.46305 37107 ft 426 kts 237°
2026-05-09 08:02 28.84584 126.41148 37115 ft 426 kts 237°
2026-05-09 08:02 28.80743 126.35979 37108 ft 426 kts 237°
2026-05-09 08:03 28.76936 126.30857 37121 ft 426 kts 237°
2026-05-09 08:03 28.73095 126.25698 37078 ft 426 kts 237°
2026-05-09 08:04 28.69262 126.20555 37108 ft 425 kts 237°
2026-05-09 08:04 28.65426 126.15413 37116 ft 425 kts 237°
2026-05-09 08:05 28.61631 126.10264 37119 ft 424 kts 238°
2026-05-09 08:05 28.57963 126.05076 37115 ft 423 kts 239°
2026-05-09 08:06 28.54283 125.99851 37115 ft 423 kts 239°
2026-05-09 08:06 28.50592 125.94639 37117 ft 423 kts 239°
2026-05-09 08:07 28.46888 125.89428 37116 ft 424 kts 239°
2026-05-09 08:07 28.43177 125.84220 37118 ft 424 kts 239°
2026-05-09 08:08 28.39465 125.79016 37083 ft 424 kts 239°
2026-05-09 08:08 28.35753 125.73819 37123 ft 423 kts 239°
2026-05-09 08:09 28.32037 125.68622 37121 ft 424 kts 239°
2026-05-09 08:09 28.28349 125.63469 37116 ft 424 kts 239°
2026-05-09 08:10 28.24623 125.58271 37120 ft 424 kts 239°
2026-05-09 08:10 28.20901 125.53086 37105 ft 423 kts 239°
2026-05-09 08:11 28.17182 125.47909 37122 ft 423 kts 239°
2026-05-09 08:11 28.13457 125.42730 37115 ft 424 kts 239°
2026-05-09 08:12 28.07866 125.34971 37118 ft 424 kts 239°
2026-05-09 08:12 28.04156 125.29829 37109 ft 423 kts 239°
2026-05-09 08:13 28.00422 125.24660 37124 ft 424 kts 239°
2026-05-09 08:13 27.96684 125.19491 37118 ft 425 kts 239°
2026-05-09 08:14 27.92936 125.14316 37119 ft 425 kts 239°
2026-05-09 08:14 27.89188 125.09147 37115 ft 425 kts 239°
2026-05-09 08:15 27.85465 125.04019 37111 ft 424 kts 239°
2026-05-09 08:15 27.81712 124.98855 37125 ft 425 kts 239°
2026-05-09 08:16 27.77959 124.93697 37116 ft 425 kts 239°
2026-05-09 08:16 27.74199 124.88536 37113 ft 425 kts 239°
2026-05-09 08:17 27.70441 124.83382 37072 ft 425 kts 239°
2026-05-09 08:17 27.66680 124.78230 37105 ft 425 kts 239°
2026-05-09 08:18 27.62934 124.73105 37126 ft 426 kts 239°
2026-05-09 08:18 27.59157 124.67941 37111 ft 423 kts 239°
2026-05-09 08:19 27.57310 124.65423 37096 ft 411 kts 239°
2026-05-09 08:19 27.55493 124.62940 37114 ft 413 kts 239°
2026-05-09 08:19 27.51798 124.57860 37102 ft 426 kts 239°
2026-05-09 08:20 27.47997 124.52654 37118 ft 433 kts 239°
2026-05-09 08:20 27.44158 124.47423 37113 ft 434 kts 239°
2026-05-09 08:21 27.40316 124.42192 37104 ft 432 kts 239°
2026-05-09 08:21 27.36497 124.36999 37106 ft 429 kts 239°
2026-05-09 08:22 27.32702 124.31839 37107 ft 427 kts 239°
2026-05-09 08:22 27.28926 124.26708 37112 ft 425 kts 239°
2026-05-09 08:23 27.27041 124.24149 37225 ft 425 kts 239°
2026-05-09 08:23 27.25177 124.21618 37387 ft 427 kts 239°
2026-05-09 08:23 27.23281 124.19043 37562 ft 429 kts 239°
2026-05-09 08:23 27.21368 124.16449 37712 ft 431 kts 239°
2026-05-09 08:24 27.19449 124.13851 37860 ft 432 kts 239°
2026-05-09 08:24 27.17521 124.11243 37992 ft 435 kts 239°
2026-05-09 08:24 27.13630 124.05980 38073 ft 441 kts 239°
2026-05-09 08:25 27.10352 124.01554 38093 ft 444 kts 239°
2026-05-09 08:25 27.06377 123.96228 38105 ft 446 kts 238°
2026-05-09 08:26 27.02365 123.90917 38104 ft 445 kts 238°
2026-05-09 08:26 26.98372 123.85636 38051 ft 441 kts 238°
2026-05-09 08:27 26.94478 123.80490 38092 ft 432 kts 238°
2026-05-09 08:27 26.90593 123.75342 38101 ft 432 kts 238°
2026-05-09 08:28 26.86707 123.70201 38098 ft 432 kts 238°
2026-05-09 08:28 26.82824 123.65073 38104 ft 432 kts 239°
2026-05-09 08:29 26.78931 123.59938 38100 ft 432 kts 239°
2026-05-09 08:29 26.75063 123.54844 38088 ft 432 kts 239°
2026-05-09 08:30 26.71177 123.49731 38093 ft 431 kts 239°
2026-05-09 08:30 26.67288 123.44619 38102 ft 431 kts 239°
2026-05-09 08:31 26.63393 123.39504 38098 ft 432 kts 239°
2026-05-09 08:31 26.59499 123.34392 38093 ft 432 kts 238°
2026-05-09 08:32 26.55588 123.29261 38096 ft 434 kts 238°
2026-05-09 08:33 26.49716 123.21569 38107 ft 437 kts 238°
2026-05-09 08:33 26.45768 123.16404 38101 ft 438 kts 238°
2026-05-09 08:34 26.41804 123.11225 38051 ft 439 kts 237°
2026-05-09 08:34 26.37836 123.06046 38079 ft 438 kts 237°
2026-05-09 08:35 26.33894 123.00908 38087 ft 438 kts 237°
2026-05-09 08:35 26.29924 122.95750 38091 ft 438 kts 237°
2026-05-09 08:36 26.25943 122.90598 38093 ft 438 kts 237°
2026-05-09 08:36 26.21958 122.85443 38063 ft 438 kts 237°
2026-05-09 08:37 26.17984 122.80307 38076 ft 438 kts 237°
2026-05-09 08:37 26.14007 122.75172 38089 ft 438 kts 237°
2026-05-09 08:38 26.10048 122.70062 38104 ft 439 kts 237°
2026-05-09 08:38 26.06048 122.64908 38101 ft 439 kts 237°
2026-05-09 08:39 26.02053 122.59769 38082 ft 438 kts 236°
2026-05-09 08:39 25.98066 122.54639 38077 ft 438 kts 236°
2026-05-09 08:40 25.94072 122.49510 38089 ft 438 kts 236°
2026-05-09 08:40 25.90092 122.44387 38091 ft 438 kts 237°
2026-05-09 08:41 25.86142 122.39297 38083 ft 438 kts 237°
2026-05-09 08:41 25.82152 122.34160 38069 ft 438 kts 236°
2026-05-09 08:42 25.78157 122.29025 38096 ft 440 kts 236°
2026-05-09 08:42 25.74154 122.23885 38090 ft 440 kts 236°
2026-05-09 08:43 25.70139 122.18736 38082 ft 441 kts 236°
2026-05-09 08:43 25.66148 122.13622 38084 ft 441 kts 236°
2026-05-09 08:44 25.62121 122.08469 38069 ft 441 kts 236°
2026-05-09 08:44 25.58090 122.03333 38082 ft 442 kts 236°
2026-05-09 08:45 25.54045 121.98191 38083 ft 443 kts 236°
2026-05-09 08:45 25.49996 121.93049 38072 ft 443 kts 236°
2026-05-09 08:46 25.45946 121.87908 38078 ft 443 kts 236°
2026-05-09 08:46 25.41890 121.82765 38057 ft 444 kts 236°
2026-05-09 08:47 25.37852 121.77649 38081 ft 444 kts 236°
2026-05-09 08:47 25.33779 121.72494 38068 ft 445 kts 236°
2026-05-09 08:48 25.29703 121.67343 38066 ft 444 kts 236°
2026-05-09 08:48 25.25627 121.62197 38060 ft 444 kts 236°
2026-05-09 08:49 25.21562 121.57067 38045 ft 444 kts 235°
2026-05-09 08:49 25.17491 121.51938 38063 ft 447 kts 235°
2026-05-09 08:50 25.13320 121.46826 38043 ft 449 kts 234°
2026-05-09 08:50 25.09105 121.41746 38044 ft 449 kts 234°
2026-05-09 08:51 25.04895 121.36663 38047 ft 448 kts 234°
2026-05-09 08:51 25.00694 121.31583 38040 ft 448 kts 234°
2026-05-09 08:52 24.96496 121.26506 38040 ft 448 kts 234°
2026-05-09 08:52 24.92293 121.21425 38049 ft 448 kts 234°
2026-05-09 08:53 24.88110 121.16374 38030 ft 449 kts 234°
2026-05-09 08:53 24.83899 121.11297 38027 ft 449 kts 234°
2026-05-09 08:54 24.79682 121.06219 38008 ft 449 kts 234°
2026-05-09 08:54 24.75461 121.01140 38011 ft 449 kts 234°
2026-05-09 08:55 24.71239 120.96065 38009 ft 449 kts 234°
2026-05-09 08:55 24.67024 120.91006 38007 ft 448 kts 234°
2026-05-09 08:56 24.62831 120.85978 38007 ft 448 kts 234°
2026-05-09 08:56 24.58618 120.80931 38001 ft 447 kts 234°
2026-05-09 08:57 24.54407 120.75893 38012 ft 448 kts 234°
2026-05-09 08:57 24.50173 120.70827 38008 ft 451 kts 234°
2026-05-09 08:58 24.45922 120.65752 38003 ft 452 kts 234°
2026-05-09 08:58 24.41661 120.60670 37983 ft 451 kts 234°
2026-05-09 08:59 24.37439 120.55641 37984 ft 450 kts 233°
2026-05-09 08:59 24.33199 120.50595 37993 ft 449 kts 233°
2026-05-09 09:00 24.28961 120.45555 37994 ft 449 kts 233°
2026-05-09 09:00 24.24718 120.40514 37994 ft 450 kts 233°
2026-05-09 09:01 24.20469 120.35472 37999 ft 450 kts 233°
2026-05-09 09:01 24.16242 120.30461 37973 ft 451 kts 233°
2026-05-09 09:02 24.11975 120.25408 37993 ft 452 kts 233°
2026-05-09 09:02 24.07695 120.20346 37990 ft 453 kts 233°
2026-05-09 09:03 24.03398 120.15269 37996 ft 455 kts 233°
2026-05-09 09:03 23.99091 120.10186 37993 ft 455 kts 233°
2026-05-09 09:04 23.94777 120.05100 37976 ft 456 kts 233°
2026-05-09 09:04 23.90490 120.00051 37984 ft 456 kts 233°
2026-05-09 09:05 23.86168 119.94965 37995 ft 457 kts 233°
2026-05-09 09:05 23.81833 119.89871 37996 ft 457 kts 233°
2026-05-09 09:06 23.77500 119.84782 37994 ft 457 kts 233°
2026-05-09 09:06 23.73161 119.79693 37975 ft 457 kts 232°
2026-05-09 09:07 23.68841 119.74630 37986 ft 459 kts 233°
2026-05-09 09:07 23.64489 119.69535 37995 ft 459 kts 233°
2026-05-09 09:08 23.60178 119.64409 38001 ft 456 kts 236°
2026-05-09 09:08 23.56571 119.58780 38004 ft 451 kts 243°
2026-05-09 09:09 23.53277 119.53015 37996 ft 451 kts 243°
2026-05-09 09:09 23.49947 119.47225 37988 ft 451 kts 243°
2026-05-09 09:10 23.46598 119.41445 37999 ft 451 kts 243°
2026-05-09 09:10 23.43238 119.35662 38009 ft 451 kts 243°
2026-05-09 09:11 23.39874 119.29881 38008 ft 452 kts 243°
2026-05-09 09:11 23.36524 119.24130 38010 ft 452 kts 243°
2026-05-09 09:12 23.33153 119.18348 38008 ft 452 kts 243°
2026-05-09 09:12 23.29775 119.12562 37993 ft 453 kts 243°
2026-05-09 09:13 23.26398 119.06783 38009 ft 453 kts 243°
2026-05-09 09:13 23.23012 119.00994 38010 ft 453 kts 243°
2026-05-09 09:14 23.19647 118.95249 38010 ft 453 kts 243°
2026-05-09 09:14 23.16251 118.89457 38009 ft 454 kts 243°
2026-05-09 09:15 23.12860 118.83680 38007 ft 454 kts 243°
2026-05-09 09:15 23.10035 118.78872 38007 ft 454 kts 243°
2026-05-09 09:16 23.06638 118.73096 38024 ft 454 kts 243°
2026-05-09 09:16 23.01527 118.64419 38014 ft 455 kts 243°
2026-05-09 09:17 22.98109 118.58622 38013 ft 455 kts 243°
2026-05-09 09:17 22.94688 118.52830 38011 ft 456 kts 242°
2026-05-09 09:18 22.91255 118.47054 38010 ft 456 kts 242°
2026-05-09 09:18 22.87814 118.41275 37993 ft 456 kts 242°
2026-05-09 09:19 22.84387 118.35521 38020 ft 457 kts 242°
2026-05-09 09:19 22.80933 118.29726 38011 ft 458 kts 242°
2026-05-09 09:20 22.77476 118.23930 38001 ft 458 kts 242°
2026-05-09 09:20 22.74032 118.18166 38018 ft 458 kts 242°
2026-05-09 09:21 22.70560 118.12359 37996 ft 459 kts 242°
2026-05-09 09:21 22.67092 118.06565 38020 ft 459 kts 242°
2026-05-09 09:22 22.63617 118.00766 38018 ft 458 kts 242°
2026-05-09 09:22 22.60150 117.94986 38007 ft 457 kts 242°
2026-05-09 09:23 22.56699 117.89198 38002 ft 457 kts 243°
2026-05-09 09:23 22.53267 117.83426 38014 ft 456 kts 243°
2026-05-09 09:24 22.49833 117.77660 38013 ft 456 kts 242°
2026-05-09 09:24 22.46393 117.71893 38016 ft 456 kts 242°
2026-05-09 09:25 22.42973 117.66166 37996 ft 456 kts 242°
2026-05-09 09:25 22.39523 117.60394 38000 ft 457 kts 242°
2026-05-09 09:26 22.36072 117.54612 38002 ft 457 kts 244°
2026-05-09 09:26 22.33750 117.48394 38010 ft 446 kts 260°
2026-05-09 09:27 22.33034 117.41811 38020 ft 440 kts 272°
2026-05-09 09:27 22.32967 117.35199 38018 ft 441 kts 272°
2026-05-09 09:28 22.32900 117.28569 38011 ft 441 kts 272°
2026-05-09 09:28 22.32797 117.21929 38013 ft 442 kts 272°
2026-05-09 09:29 22.32674 117.15293 38013 ft 442 kts 272°
2026-05-09 09:29 22.32545 117.08700 38005 ft 441 kts 272°
2026-05-09 09:30 22.32414 117.02083 38006 ft 440 kts 272°
2026-05-09 09:30 22.32281 116.95491 38016 ft 439 kts 272°
2026-05-09 09:31 22.32146 116.88901 38007 ft 438 kts 272°
2026-05-09 09:32 22.31940 116.79081 37995 ft 437 kts 272°
2026-05-09 09:32 22.31799 116.72513 38017 ft 437 kts 272°
2026-05-09 09:33 22.31656 116.65937 38016 ft 438 kts 272°
2026-05-09 09:33 22.31509 116.59346 38024 ft 439 kts 272°
2026-05-09 09:34 22.31359 116.52731 38017 ft 440 kts 272°
2026-05-09 09:34 22.31207 116.46151 37711 ft 441 kts 271°
2026-05-09 09:36 22.30661 116.23494 34228 ft 420 kts 271°
2026-05-09 09:36 22.30583 116.20344 33698 ft 417 kts 271°
2026-05-09 09:36 22.30506 116.17219 33136 ft 415 kts 270°
2026-05-09 09:37 22.30428 116.14110 32588 ft 413 kts 270°
2026-05-09 09:37 22.30350 116.11024 32050 ft 411 kts 270°
2026-05-09 09:37 22.30272 116.07979 31539 ft 409 kts 270°
2026-05-09 09:37 22.30194 116.04921 31025 ft 407 kts 269°
2026-05-09 09:38 22.30115 116.01870 30518 ft 406 kts 269°
2026-05-09 09:38 22.30034 115.98740 30050 ft 429 kts 269°
2026-05-09 09:38 22.29947 115.95409 29501 ft 454 kts 269°
2026-05-09 09:38 22.29855 115.91952 28946 ft 465 kts 269°
2026-05-09 09:39 22.29763 115.88497 28393 ft 466 kts 268°
2026-05-09 09:39 22.29668 115.84997 27842 ft 465 kts 268°
2026-05-09 09:39 22.29575 115.81526 27307 ft 462 kts 268°
2026-05-09 09:39 22.29495 115.78057 26782 ft 460 kts 268°
2026-05-09 09:40 22.29423 115.74606 26246 ft 458 kts 268°
2026-05-09 09:40 22.29349 115.71168 25742 ft 456 kts 268°
2026-05-09 09:40 22.29272 115.67750 25242 ft 454 kts 268°
2026-05-09 09:40 22.29182 115.64347 24760 ft 452 kts 267°
2026-05-09 09:41 22.29087 115.60965 24269 ft 448 kts 267°
2026-05-09 09:41 22.28991 115.57622 23788 ft 443 kts 267°
2026-05-09 09:41 22.28896 115.54318 23258 ft 438 kts 267°
2026-05-09 09:41 22.28801 115.51046 22690 ft 434 kts 267°
2026-05-09 09:42 22.28708 115.47802 22146 ft 431 kts 267°
2026-05-09 09:42 22.28617 115.44622 21606 ft 428 kts 267°
2026-05-09 09:42 22.28525 115.41421 21076 ft 425 kts 267°
2026-05-09 09:42 22.28433 115.38242 20551 ft 422 kts 267°
2026-05-09 09:43 22.28341 115.35084 20044 ft 420 kts 268°
2026-05-09 09:43 22.28248 115.31939 19545 ft 418 kts 267°
2026-05-09 09:43 22.28152 115.28810 19043 ft 415 kts 267°
2026-05-09 09:43 22.28056 115.25709 18550 ft 414 kts 268°
2026-05-09 09:44 22.27960 115.22599 18025 ft 412 kts 268°
2026-05-09 09:44 22.27864 115.19523 17473 ft 408 kts 268°
2026-05-09 09:44 22.27769 115.16472 16925 ft 403 kts 268°
2026-05-09 09:44 22.27674 115.13461 16383 ft 398 kts 268°
2026-05-09 09:45 22.27582 115.10517 15853 ft 395 kts 268°
2026-05-09 09:45 22.27488 115.07570 15335 ft 390 kts 268°
2026-05-09 09:45 22.27395 115.04657 14832 ft 386 kts 269°
2026-05-09 09:45 22.27303 115.01780 14354 ft 382 kts 269°
2026-05-09 09:46 22.27210 114.98870 14180 ft 387 kts 269°
2026-05-09 09:46 22.27118 114.96017 13989 ft 369 kts 269°
2026-05-09 09:46 22.27029 114.93337 13687 ft 347 kts 269°
2026-05-09 09:46 22.26944 114.90788 13025 ft 337 kts 269°
2026-05-09 09:47 22.26856 114.88263 12267 ft 333 kts 269°
2026-05-09 09:47 22.26770 114.85800 11621 ft 325 kts 268°
2026-05-09 09:47 22.26686 114.83380 11331 ft 320 kts 269°
2026-05-09 09:47 22.26601 114.80980 11178 ft 328 kts 268°
2026-05-09 09:48 22.26199 114.78545 11028 ft 335 kts 248°
2026-05-09 09:48 22.24961 114.76430 10900 ft 332 kts 229°
2026-05-09 09:48 22.23309 114.74684 10543 ft 331 kts 224°
2026-05-09 09:48 22.21634 114.73000 10188 ft 327 kts 224°
2026-05-09 09:49 22.19969 114.71329 9830 ft 324 kts 224°
2026-05-09 09:49 22.18331 114.69677 9435 ft 322 kts 224°
2026-05-09 09:49 22.16702 114.68024 9082 ft 320 kts 225°
2026-05-09 09:49 22.15088 114.66378 9003 ft 320 kts 224°
2026-05-09 09:50 22.13507 114.64761 8972 ft 307 kts 224°
2026-05-09 09:50 22.11992 114.63211 8973 ft 293 kts 225°
2026-05-09 09:50 22.10527 114.61710 8998 ft 292 kts 225°
2026-05-09 09:50 22.09046 114.60188 8982 ft 295 kts 224°
2026-05-09 09:51 22.07568 114.58672 8994 ft 292 kts 225°
2026-05-09 09:51 22.06118 114.57186 8975 ft 289 kts 225°
2026-05-09 09:51 22.04668 114.55699 8799 ft 286 kts 224°
2026-05-09 09:51 22.03228 114.54224 8487 ft 285 kts 224°
2026-05-09 09:52 22.01956 114.52614 7932 ft 283 kts 243°
2026-05-09 09:52 22.01186 114.50661 7456 ft 285 kts 249°
2026-05-09 09:52 22.00458 114.48664 7155 ft 284 kts 249°
2026-05-09 09:52 21.99739 114.46728 6953 ft 278 kts 248°
2026-05-09 09:53 21.99023 114.44821 6794 ft 272 kts 248°
2026-05-09 09:53 21.98315 114.42946 6545 ft 269 kts 248°
2026-05-09 09:53 21.97606 114.41078 6227 ft 269 kts 248°
2026-05-09 09:53 21.96900 114.39224 6021 ft 265 kts 248°
2026-05-09 09:54 21.96200 114.37394 5882 ft 262 kts 248°
2026-05-09 09:54 21.95504 114.35574 5742 ft 263 kts 249°
2026-05-09 09:54 21.94806 114.33749 5584 ft 265 kts 249°
2026-05-09 09:54 21.94100 114.31906 5445 ft 266 kts 249°
2026-05-09 09:55 21.93393 114.30063 5297 ft 266 kts 249°
2026-05-09 09:55 21.92686 114.28222 5187 ft 268 kts 249°
2026-05-09 09:55 21.91969 114.26349 5122 ft 270 kts 248°
2026-05-09 09:55 21.91265 114.24522 5053 ft 265 kts 249°
2026-05-09 09:56 21.90565 114.22704 4999 ft 260 kts 249°
2026-05-09 09:56 21.89878 114.20910 4996 ft 258 kts 250°
2026-05-09 09:56 21.89598 114.19024 4986 ft 259 kts 281°
2026-05-09 09:56 21.90218 114.17224 4999 ft 257 kts 300°
2026-05-09 09:57 21.91107 114.15527 5003 ft 261 kts 300°
2026-05-09 09:57 21.91998 114.13816 4990 ft 262 kts 300°
2026-05-09 09:57 21.92891 114.12102 4988 ft 262 kts 300°
2026-05-09 09:57 21.93773 114.10410 4990 ft 262 kts 300°
2026-05-09 09:58 21.94664 114.08697 4986 ft 262 kts 300°
2026-05-09 09:58 21.95550 114.06990 4993 ft 260 kts 300°
2026-05-09 09:58 21.96431 114.05292 4987 ft 260 kts 300°
2026-05-09 09:58 21.97310 114.03592 4988 ft 259 kts 300°
2026-05-09 09:59 21.98186 114.01897 4978 ft 260 kts 299°
2026-05-09 09:59 21.99067 114.00192 4880 ft 262 kts 299°
2026-05-09 09:59 21.99951 113.98478 4758 ft 260 kts 300°
2026-05-09 09:59 22.00829 113.96777 4626 ft 259 kts 300°
2026-05-09 10:00 22.01701 113.95085 4505 ft 258 kts 300°
2026-05-09 10:00 22.02576 113.93387 4393 ft 260 kts 300°
2026-05-09 10:00 22.03460 113.91672 4243 ft 262 kts 300°
2026-05-09 10:00 22.04348 113.89948 4084 ft 262 kts 300°
2026-05-09 10:01 22.05220 113.88254 3924 ft 260 kts 300°
2026-05-09 10:01 22.06097 113.86549 3774 ft 259 kts 300°
2026-05-09 10:01 22.06973 113.84846 3622 ft 260 kts 300°
2026-05-09 10:01 22.07850 113.83143 3473 ft 260 kts 300°
2026-05-09 10:02 22.08727 113.81437 3331 ft 261 kts 300°
2026-05-09 10:02 22.09604 113.79731 3194 ft 258 kts 300°
2026-05-09 10:02 22.10505 113.78074 2995 ft 253 kts 310°
2026-05-09 10:02 22.11884 113.76975 2823 ft 244 kts 339°
2026-05-09 10:03 22.13441 113.76228 2710 ft 246 kts 339°
2026-05-09 10:03 22.15002 113.75442 2614 ft 250 kts 339°
2026-05-09 10:03 22.16580 113.74649 2461 ft 249 kts 339°
2026-05-09 10:03 22.18125 113.73873 2295 ft 246 kts 338°
2026-05-09 10:04 22.19657 113.73108 2104 ft 236 kts 339°
2026-05-09 10:04 22.21133 113.72694 1854 ft 207 kts 11°
2026-05-09 10:04 22.22460 113.73103 1792 ft 197 kts 31°
2026-05-09 10:04 22.23644 113.73854 1755 ft 197 kts 36°
2026-05-09 10:05 22.24803 113.74669 1758 ft 196 kts 36°
2026-05-09 10:05 22.25916 113.75465 1787 ft 185 kts 41°
2026-05-09 10:05 22.26625 113.76540 1774 ft 171 kts 69°
2026-05-09 10:05 22.27133 113.77726 1782 ft 172 kts 66°
2026-05-09 10:06 22.27451 113.78490 1768 ft 163 kts 69°
2026-05-09 10:06 22.27825 113.79549 1733 ft 143 kts 72°
2026-05-09 10:06 22.28148 113.80545 1788 ft 141 kts 72°
2026-05-09 10:06 22.28474 113.81557 1600 ft 143 kts 73°
2026-05-09 10:07 22.28793 113.82561 1432 ft 141 kts 72°
2026-05-09 10:07 22.29116 113.83563 1265 ft 141 kts 72°
2026-05-09 10:07 22.29434 113.84556 1099 ft 140 kts 72°
2026-05-09 10:07 22.29754 113.85557 911 ft 142 kts 72°
2026-05-09 10:08 22.30078 113.86572 745 ft 144 kts 72°
2026-05-09 10:08 22.30403 113.87591 518 ft 140 kts 73°
2026-05-09 10:08 22.30709 113.88565 317 ft 134 kts 73°
2026-05-09 10:08 22.31015 113.89535 143 ft 138 kts 73°
2026-05-09 10:09 22.31324 113.90519 37 ft 133 kts 71°
2026-05-09 10:09 22.31581 113.91317 37 ft 87 kts 70°
2026-05-09 10:09 22.31717 113.91744 38 ft 41 kts 71°
2026-05-09 10:09 22.31792 113.92000 38 ft 31 kts 79°
2026-05-09 10:10 22.31775 113.92218 38 ft 23 kts 101°
2026-05-09 10:10 22.31754 113.92333 37 ft 6 kts 101°
2026-05-09 10:10 22.31746 113.92376 37 ft 6 kts 101°
2026-05-09 10:10 22.31723 113.92415 37 ft 7 kts 142°
2026-05-09 10:11 22.31678 113.92438 37 ft 8 kts 159°
2026-05-09 10:11 22.31631 113.92466 37 ft 8 kts 136°
2026-05-09 10:11 22.31603 113.92516 37 ft 8 kts 116°
2026-05-09 10:11 22.31577 113.92570 37 ft 8 kts 118°
2026-05-09 10:12 22.31551 113.92626 37 ft 10 kts 116°
2026-05-09 10:12 22.31510 113.92715 37 ft 14 kts 116°
2026-05-09 10:12 22.31495 113.92818 37 ft 14 kts 72°
2026-05-09 10:12 22.31527 113.92920 37 ft 14 kts 71°
2026-05-09 10:13 22.31560 113.93023 37 ft 14 kts 71°
2026-05-09 10:13 22.31584 113.93098 37 ft 7 kts 71°
2026-05-09 10:13 22.31601 113.93149 37 ft 7 kts 65°
2026-05-09 10:13 22.31608 113.93159 37 ft 1 kts 53°
2026-05-09 10:14 22.31612 113.93165 37 ft 2 kts 53°
2026-05-09 10:14 22.31625 113.93188 37 ft 4 kts 68°
2026-05-09 10:14 22.31624 113.93222 37 ft 5 kts 104°
2026-05-09 10:14 22.31615 113.93259 37 ft 1 kts 110°
2026-05-09 10:15 22.31611 113.93270 37 ft 1 kts 110°
2026-05-09 10:15 22.31608 113.93279 37 ft 1 kts 110°
2026-05-09 10:15 22.31607 113.93283 37 ft 0 kts 110°